Wetterdaten: aktuell Montag, 13.07.2020 10:59
Datum Zeit Temp. A. Feuchte A. Luftdruck Regen Wind Richtung Richtung Sonnenschein ET UV Solar Taupunkt Windchill Windben Empfang
13.07.2020 10:59 17,9 C 53 % 1024,4 hPa 0,0 l/m 22,5 km/h (4 Bft) O-SO 112 1 min 0,000 mm 4,5 UV-I 726 W/m 8,2 C 17,9 C 38,6 km/h (5 Bft) 100,00 %
13.07.2020 10:58 17,8 C 54 % 1024,4 hPa 0,0 l/m 20,9 km/h (4 Bft) O-SO 112 1 min 0,000 mm 4,5 UV-I 726 W/m 8,4 C 17,8 C 37,0 km/h (5 Bft) 100,00 %
13.07.2020 10:57 17,8 C 57 % 1024,5 hPa 0,0 l/m 16,1 km/h (3 Bft) O-SO 112 1 min 0,000 mm 4,5 UV-I 722 W/m 9,2 C 17,8 C 24,1 km/h (4 Bft) 95,65 %
13.07.2020 10:56 17,7 C 56 % 1024,4 hPa 0,0 l/m 17,7 km/h (3 Bft) O-SO 112 1 min 0,000 mm 4,4 UV-I 719 W/m 8,8 C 17,7 C 20,9 km/h (4 Bft) 91,30 %
13.07.2020 10:55 17,7 C 55 % 1024,4 hPa 0,0 l/m 17,7 km/h (3 Bft) O-SO 112 1 min 0,000 mm 4,4 UV-I 717 W/m 8,5 C 17,7 C 25,7 km/h (4 Bft) 82,61 %
13.07.2020 10:54 17,7 C 57 % 1024,4 hPa 0,0 l/m 17,7 km/h (3 Bft) O-SO 112 1 min 0,000 mm 4,4 UV-I 717 W/m 9,1 C 17,7 C 25,7 km/h (4 Bft) 78,26 %
13.07.2020 10:53 17,6 C 57 % 1024,4 hPa 0,0 l/m 17,7 km/h (3 Bft) O-SO 112 1 min 0,000 mm 4,4 UV-I 717 W/m 9,0 C 17,6 C 24,1 km/h (4 Bft) 95,65 %
13.07.2020 10:52 17,7 C 55 % 1024,4 hPa 0,0 l/m 22,5 km/h (4 Bft) SO 135 1 min 0,000 mm 4,4 UV-I 714 W/m 8,5 C 17,7 C 27,4 km/h (4 Bft) 95,65 %
13.07.2020 10:51 17,7 C 57 % 1024,5 hPa 0,0 l/m 20,9 km/h (4 Bft) SO 135 1 min 0,000 mm 4,4 UV-I 715 W/m 9,1 C 17,7 C 29,0 km/h (5 Bft) 82,61 %
13.07.2020 10:50 17,6 C 57 % 1024,4 hPa 0,0 l/m 17,7 km/h (3 Bft) O-SO 112 1 min 0,000 mm 4,3 UV-I 698 W/m 9,0 C 17,6 C 25,7 km/h (4 Bft) 100,00 %
13.07.2020 10:49 17,7 C 57 % 1024,4 hPa 0,0 l/m 19,3 km/h (3 Bft) O-SO 112 1 min 0,000 mm 4,2 UV-I 687 W/m 9,1 C 17,7 C 30,6 km/h (5 Bft) 100,00 %
13.07.2020 10:48 17,7 C 54 % 1024,5 hPa 0,0 l/m 20,9 km/h (4 Bft) O-SO 112 1 min 0,000 mm 4,2 UV-I 691 W/m 8,3 C 17,7 C 25,7 km/h (4 Bft) 95,65 %
13.07.2020 10:47 17,7 C 54 % 1024,5 hPa 0,0 l/m 22,5 km/h (4 Bft) O-SO 112 1 min 0,000 mm 4,2 UV-I 687 W/m 8,3 C 17,7 C 29,0 km/h (5 Bft) 91,30 %
13.07.2020 10:46 17,7 C 55 % 1024,5 hPa 0,0 l/m 22,5 km/h (4 Bft) O-SO 112 1 min 0,000 mm 4,2 UV-I 687 W/m 8,5 C 17,7 C 27,4 km/h (4 Bft) 100,00 %
13.07.2020 10:45 17,8 C 56 % 1024,4 hPa 0,0 l/m 20,9 km/h (4 Bft) SO 135 1 min 0,000 mm 4,1 UV-I 696 W/m 8,9 C 17,8 C 29,0 km/h (5 Bft) 100,00 %
13.07.2020 10:44 17,8 C 55 % 1024,5 hPa 0,0 l/m 17,7 km/h (3 Bft) O-SO 112 1 min 0,000 mm 4,2 UV-I 686 W/m 8,6 C 17,8 C 24,1 km/h (4 Bft) 95,65 %
13.07.2020 10:43 17,8 C 61 % 1024,6 hPa 0,0 l/m 19,3 km/h (3 Bft) O-SO 112 1 min 0,000 mm 4,1 UV-I 691 W/m 10,2 C 17,8 C 27,4 km/h (4 Bft) 100,00 %
13.07.2020 10:42 17,7 C 56 % 1024,5 hPa 0,0 l/m 17,7 km/h (3 Bft) O-SO 112 1 min 0,000 mm 4,1 UV-I 670 W/m 8,8 C 17,7 C 25,7 km/h (4 Bft) 95,65 %
13.07.2020 10:41 17,7 C 61 % 1024,5 hPa 0,0 l/m 16,1 km/h (3 Bft) O-SO 112 1 min 0,000 mm 4,0 UV-I 673 W/m 10,1 C 17,7 C 29,0 km/h (5 Bft) 100,00 %
13.07.2020 10:40 17,6 C 56 % 1024,5 hPa 0,0 l/m 12,9 km/h (3 Bft) O-SO 112 1 min 0,000 mm 4,1 UV-I 679 W/m 8,7 C 17,6 C 22,5 km/h (4 Bft) 95,65 %
13.07.2020 10:39 17,6 C 56 % 1024,5 hPa 0,0 l/m 17,7 km/h (3 Bft) O-SO 112 1 min 0,000 mm 4,0 UV-I 684 W/m 8,7 C 17,6 C 24,1 km/h (4 Bft) 100,00 %
13.07.2020 10:38 17,6 C 58 % 1024,4 hPa 0,0 l/m 22,5 km/h (4 Bft) SO 135 1 min 0,000 mm 4,0 UV-I 682 W/m 9,2 C 17,6 C 30,6 km/h (5 Bft) 95,65 %
13.07.2020 10:37 17,6 C 56 % 1024,5 hPa 0,0 l/m 20,9 km/h (4 Bft) O-SO 112 1 min 0,000 mm 4,0 UV-I 684 W/m 8,7 C 17,6 C 27,4 km/h (4 Bft) 100,00 %
13.07.2020 10:36 17,5 C 61 % 1024,6 hPa 0,0 l/m 14,5 km/h (3 Bft) O-SO 112 1 min 0,000 mm 4,0 UV-I 680 W/m 9,9 C 17,5 C 19,3 km/h (3 Bft) 100,00 %
13.07.2020 10:35 17,4 C 64 % 1024,6 hPa 0,0 l/m 17,7 km/h (3 Bft) SO 135 1 min 0,000 mm 4,0 UV-I 679 W/m 10,5 C 17,4 C 24,1 km/h (4 Bft) 91,30 %
13.07.2020 10:34 17,3 C 58 % 1024,5 hPa 0,0 l/m 17,7 km/h (3 Bft) O-SO 112 1 min 0,000 mm 4,0 UV-I 682 W/m 9,0 C 17,3 C 27,4 km/h (4 Bft) 100,00 %
13.07.2020 10:33 17,3 C 58 % 1024,6 hPa 0,0 l/m 14,5 km/h (3 Bft) O-SO 112 1 min 0,000 mm 3,9 UV-I 677 W/m 9,0 C 17,3 C 20,9 km/h (4 Bft) 95,65 %
13.07.2020 10:32 17,3 C 54 % 1024,4 hPa 0,0 l/m 19,3 km/h (3 Bft) O-SO 112 1 min 0,000 mm 3,9 UV-I 675 W/m 7,9 C 17,3 C 24,1 km/h (4 Bft) 100,00 %
13.07.2020 10:31 17,3 C 54 % 1024,6 hPa 0,0 l/m 19,3 km/h (3 Bft) O 90 1 min 0,000 mm 3,9 UV-I 663 W/m 7,9 C 17,3 C 32,2 km/h (5 Bft) 91,30 %
13.07.2020 10:30 17,3 C 55 % 1024,5 hPa 0,0 l/m 24,1 km/h (4 Bft) O-SO 112 1 min 0,000 mm 3,9 UV-I 664 W/m 8,2 C 17,3 C 32,2 km/h (5 Bft) 100,00 %
13.07.2020 10:29 17,3 C 56 % 1024,6 hPa 0,0 l/m 20,9 km/h (4 Bft) O-SO 112 1 min 0,000 mm 3,9 UV-I 663 W/m 8,4 C 17,3 C 27,4 km/h (4 Bft) 100,00 %
13.07.2020 10:28 17,4 C 57 % 1024,5 hPa 0,0 l/m 24,1 km/h (4 Bft) O-SO 112 1 min 0,000 mm 3,8 UV-I 664 W/m 8,8 C 17,4 C 29,0 km/h (5 Bft) 95,65 %
13.07.2020 10:27 17,4 C 57 % 1024,6 hPa 0,0 l/m 22,5 km/h (4 Bft) O 90 1 min 0,000 mm 3,8 UV-I 654 W/m 8,8 C 17,4 C 30,6 km/h (5 Bft) 100,00 %
13.07.2020 10:26 17,4 C 58 % 1024,7 hPa 0,0 l/m 20,9 km/h (4 Bft) O-SO 112 1 min 0,000 mm 3,8 UV-I 647 W/m 9,1 C 17,4 C 30,6 km/h (5 Bft) 100,00 %
13.07.2020 10:25 17,4 C 60 % 1024,6 hPa 0,0 l/m 17,7 km/h (3 Bft) O-SO 112 1 min 0,000 mm 3,8 UV-I 649 W/m 9,6 C 17,4 C 22,5 km/h (4 Bft) 86,96 %
13.07.2020 10:24 17,4 C 62 % 1024,6 hPa 0,0 l/m 11,3 km/h (2 Bft) SO 135 1 min 0,000 mm 3,8 UV-I 643 W/m 10,0 C 17,4 C 17,7 km/h (3 Bft) 95,65 %
13.07.2020 10:23 17,3 C 58 % 1024,6 hPa 0,0 l/m 17,7 km/h (3 Bft) O-SO 112 1 min 0,000 mm 3,7 UV-I 647 W/m 9,0 C 17,3 C 25,7 km/h (4 Bft) 100,00 %
13.07.2020 10:22 17,3 C 59 % 1024,6 hPa 0,0 l/m 17,7 km/h (3 Bft) O-SO 112 1 min 0,000 mm 3,7 UV-I 642 W/m 9,2 C 17,3 C 24,1 km/h (4 Bft) 95,65 %
13.07.2020 10:21 17,3 C 58 % 1024,4 hPa 0,0 l/m 19,3 km/h (3 Bft) O-SO 112 1 min 0,000 mm 3,7 UV-I 636 W/m 9,0 C 17,3 C 29,0 km/h (5 Bft) 100,00 %
13.07.2020 10:20 17,3 C 58 % 1024,6 hPa 0,0 l/m 14,5 km/h (3 Bft) O-SO 112 1 min 0,000 mm 3,7 UV-I 640 W/m 9,0 C 17,3 C 19,3 km/h (3 Bft) 91,30 %
13.07.2020 10:19 17,3 C 63 % 1024,4 hPa 0,0 l/m 19,3 km/h (3 Bft) O-SO 112 1 min 0,000 mm 3,6 UV-I 635 W/m 10,2 C 17,3 C 29,0 km/h (5 Bft) 91,30 %
13.07.2020 10:18 17,2 C 63 % 1024,6 hPa 0,0 l/m 16,1 km/h (3 Bft) SO 135 1 min 0,000 mm 3,6 UV-I 633 W/m 10,1 C 17,2 C 22,5 km/h (4 Bft) 86,96 %
13.07.2020 10:17 17,2 C 61 % 1024,6 hPa 0,0 l/m 16,1 km/h (3 Bft) O-SO 112 1 min 0,000 mm 3,6 UV-I 636 W/m 9,6 C 17,2 C 22,5 km/h (4 Bft) 95,65 %
13.07.2020 10:16 17,2 C 58 % 1024,6 hPa 0,0 l/m 14,5 km/h (3 Bft) O-SO 112 1 min 0,000 mm 3,6 UV-I 633 W/m 8,9 C 17,2 C 22,5 km/h (4 Bft) 95,65 %
13.07.2020 10:15 17,2 C 58 % 1024,7 hPa 0,0 l/m 20,9 km/h (4 Bft) O-SO 112 1 min 0,000 mm 3,6 UV-I 638 W/m 8,9 C 17,2 C 29,0 km/h (5 Bft) 100,00 %
13.07.2020 10:14 17,2 C 58 % 1024,7 hPa 0,0 l/m 22,5 km/h (4 Bft) O-SO 112 1 min 0,000 mm 3,6 UV-I 636 W/m 8,9 C 17,2 C 30,6 km/h (5 Bft) 95,65 %
13.07.2020 10:13 17,2 C 61 % 1024,6 hPa 0,0 l/m 19,3 km/h (3 Bft) O-SO 112 1 min 0,000 mm 3,5 UV-I 635 W/m 9,6 C 17,2 C 25,7 km/h (4 Bft) 100,00 %
13.07.2020 10:12 17,2 C 60 % 1024,7 hPa 0,0 l/m 19,3 km/h (3 Bft) O-SO 112 1 min 0,000 mm 3,5 UV-I 635 W/m 9,4 C 17,2 C 30,6 km/h (5 Bft) 95,65 %
13.07.2020 10:11 17,2 C 67 % 1024,7 hPa 0,0 l/m 16,1 km/h (3 Bft) O-SO 112 1 min 0,000 mm 3,5 UV-I 631 W/m 11,0 C 17,2 C 24,1 km/h (4 Bft) 91,30 %
13.07.2020 10:10 17,1 C 64 % 1024,7 hPa 0,0 l/m 12,9 km/h (3 Bft) O-SO 112 1 min 0,000 mm 3,5 UV-I 629 W/m 10,2 C 17,1 C 16,1 km/h (3 Bft) 100,00 %
13.07.2020 10:09 17,1 C 60 % 1024,7 hPa 0,0 l/m 17,7 km/h (3 Bft) O-SO 112 1 min 0,000 mm 3,4 UV-I 626 W/m 9,3 C 17,1 C 20,9 km/h (4 Bft) 91,30 %
13.07.2020 10:08 17,0 C 61 % 1024,7 hPa 0,0 l/m 20,9 km/h (4 Bft) O-SO 112 1 min 0,000 mm 3,4 UV-I 624 W/m 9,4 C 17,0 C 27,4 km/h (4 Bft) 100,00 %
13.07.2020 10:07 17,1 C 59 % 1024,7 hPa 0,0 l/m 19,3 km/h (3 Bft) O-SO 112 1 min 0,000 mm 3,4 UV-I 612 W/m 9,0 C 17,1 C 24,1 km/h (4 Bft) 95,65 %
13.07.2020 10:06 17,1 C 61 % 1024,8 hPa 0,0 l/m 19,3 km/h (3 Bft) SO 135 1 min 0,000 mm 3,4 UV-I 613 W/m 9,5 C 17,1 C 27,4 km/h (4 Bft) 86,96 %
13.07.2020 10:05 17,0 C 62 % 1024,7 hPa 0,0 l/m 17,7 km/h (3 Bft) O-SO 112 1 min 0,000 mm 3,3 UV-I 605 W/m 9,7 C 17,0 C 22,5 km/h (4 Bft) 95,65 %
13.07.2020 10:04 17,0 C 64 % 1024,9 hPa 0,0 l/m 16,1 km/h (3 Bft) SO 135 1 min 0,000 mm 3,3 UV-I 610 W/m 10,1 C 17,0 C 22,5 km/h (4 Bft) 91,30 %
13.07.2020 10:03 16,9 C 67 % 1024,8 hPa 0,0 l/m 14,5 km/h (3 Bft) O-SO 112 1 min 0,000 mm 3,3 UV-I 613 W/m 10,7 C 16,9 C 24,1 km/h (4 Bft) 100,00 %
13.07.2020 10:02 16,9 C 64 % 1024,9 hPa 0,0 l/m 16,1 km/h (3 Bft) O-SO 112 1 min 0,000 mm 3,3 UV-I 612 W/m 10,0 C 16,9 C 20,9 km/h (4 Bft) 95,65 %
13.07.2020 10:01 16,8 C 61 % 1024,8 hPa 0,0 l/m 17,7 km/h (3 Bft) O-SO 112 1 min 0,000 mm 3,3 UV-I 608 W/m 9,2 C 16,8 C 22,5 km/h (4 Bft) 86,96 %
13.07.2020 10:00 16,8 C 65 % 1024,8 hPa 0,0 l/m 17,7 km/h (3 Bft) O-SO 112 1 min 0,330 mm 3,2 UV-I 605 W/m 10,2 C 16,8 C 25,7 km/h (4 Bft) 100,00 %
13.07.2020 09:59 16,8 C 64 % 1024,8 hPa 0,0 l/m 11,3 km/h (2 Bft) O-SO 112 1 min 0,000 mm 3,2 UV-I 603 W/m 10,0 C 16,8 C 17,7 km/h (3 Bft) 100,00 %
13.07.2020 09:58 16,8 C 62 % 1024,8 hPa 0,0 l/m 16,1 km/h (3 Bft) O-SO 112 1 min 0,000 mm 3,2 UV-I 601 W/m 9,5 C 16,8 C 20,9 km/h (4 Bft) 100,00 %
13.07.2020 09:57 16,8 C 61 % 1024,8 hPa 0,0 l/m 20,9 km/h (4 Bft) O-SO 112 1 min 0,000 mm 3,2 UV-I 598 W/m 9,2 C 16,8 C 27,4 km/h (4 Bft) 100,00 %
13.07.2020 09:56 16,8 C 65 % 1024,8 hPa 0,0 l/m 16,1 km/h (3 Bft) O-SO 112 1 min 0,000 mm 3,1 UV-I 594 W/m 10,2 C 16,8 C 22,5 km/h (4 Bft) 100,00 %
13.07.2020 09:55 16,8 C 62 % 1024,8 hPa 0,0 l/m 19,3 km/h (3 Bft) O-SO 112 1 min 0,000 mm 3,1 UV-I 587 W/m 9,5 C 16,8 C 24,1 km/h (4 Bft) 95,65 %
13.07.2020 09:54 16,8 C 61 % 1024,8 hPa 0,0 l/m 16,1 km/h (3 Bft) O-SO 112 1 min 0,000 mm 3,1 UV-I 591 W/m 9,2 C 16,8 C 22,5 km/h (4 Bft) 95,65 %
13.07.2020 09:53 16,8 C 63 % 1024,8 hPa 0,0 l/m 17,7 km/h (3 Bft) O-SO 112 1 min 0,000 mm 3,1 UV-I 589 W/m 9,7 C 16,8 C 24,1 km/h (4 Bft) 100,00 %
13.07.2020 09:52 16,7 C 64 % 1024,8 hPa 0,0 l/m 16,1 km/h (3 Bft) O-SO 112 1 min 0,000 mm 3,1 UV-I 587 W/m 9,9 C 16,7 C 22,5 km/h (4 Bft) 100,00 %
13.07.2020 09:51 16,7 C 65 % 1024,8 hPa 0,0 l/m 14,5 km/h (3 Bft) O-SO 112 1 min 0,000 mm 3,1 UV-I 584 W/m 10,1 C 16,7 C 19,3 km/h (3 Bft) 100,00 %
13.07.2020 09:50 16,7 C 65 % 1024,8 hPa 0,0 l/m 17,7 km/h (3 Bft) O-SO 112 1 min 0,000 mm 3,0 UV-I 582 W/m 10,1 C 16,7 C 30,6 km/h (5 Bft) 100,00 %
13.07.2020 09:49 16,6 C 67 % 1024,9 hPa 0,0 l/m 17,7 km/h (3 Bft) O-SO 112 1 min 0,000 mm 3,0 UV-I 578 W/m 10,4 C 16,6 C 30,6 km/h (5 Bft) 95,65 %
13.07.2020 09:48 16,6 C 67 % 1024,9 hPa 0,0 l/m 11,3 km/h (2 Bft) O-SO 112 1 min 0,000 mm 3,0 UV-I 578 W/m 10,4 C 16,6 C 14,5 km/h (3 Bft) 100,00 %
13.07.2020 09:47 16,5 C 67 % 1024,9 hPa 0,0 l/m 16,1 km/h (3 Bft) O-SO 112 1 min 0,000 mm 3,0 UV-I 575 W/m 10,4 C 16,5 C 20,9 km/h (4 Bft) 100,00 %
13.07.2020 09:46 16,4 C 68 % 1024,9 hPa 0,0 l/m 14,5 km/h (3 Bft) SO 135 1 min 0,000 mm 2,9 UV-I 573 W/m 10,5 C 16,4 C 17,7 km/h (3 Bft) 100,00 %
13.07.2020 09:45 16,4 C 69 % 1024,8 hPa 0,0 l/m 12,9 km/h (3 Bft) SO 135 1 min 0,000 mm 2,9 UV-I 570 W/m 10,7 C 16,4 C 19,3 km/h (3 Bft) 100,00 %
13.07.2020 09:44 16,3 C 68 % 1024,8 hPa 0,0 l/m 12,9 km/h (3 Bft) SO 135 1 min 0,000 mm 2,9 UV-I 568 W/m 10,4 C 16,3 C 19,3 km/h (3 Bft) 100,00 %
13.07.2020 09:43 16,3 C 67 % 1024,9 hPa 0,0 l/m 12,9 km/h (3 Bft) O-SO 112 1 min 0,000 mm 2,9 UV-I 566 W/m 10,2 C 16,3 C 19,3 km/h (3 Bft) 95,65 %
13.07.2020 09:42 16,3 C 65 % 1024,9 hPa 0,0 l/m 14,5 km/h (3 Bft) SO 135 1 min 0,000 mm 2,9 UV-I 563 W/m 9,7 C 16,3 C 20,9 km/h (4 Bft) 95,65 %
13.07.2020 09:41 16,3 C 69 % 1024,9 hPa 0,0 l/m 17,7 km/h (3 Bft) SO 135 1 min 0,000 mm 2,8 UV-I 563 W/m 10,6 C 16,3 C 22,5 km/h (4 Bft) 100,00 %
13.07.2020 09:40 16,3 C 66 % 1024,8 hPa 0,0 l/m 16,1 km/h (3 Bft) O-SO 112 1 min 0,000 mm 2,8 UV-I 557 W/m 9,9 C 16,3 C 20,9 km/h (4 Bft) 100,00 %
13.07.2020 09:39 16,3 C 65 % 1024,8 hPa 0,0 l/m 19,3 km/h (3 Bft) SO 135 1 min 0,000 mm 2,8 UV-I 554 W/m 9,7 C 16,3 C 22,5 km/h (4 Bft) 100,00 %
13.07.2020 09:38 16,3 C 68 % 1024,9 hPa 0,0 l/m 14,5 km/h (3 Bft) SO 135 1 min 0,000 mm 2,7 UV-I 552 W/m 10,4 C 16,3 C 19,3 km/h (3 Bft) 91,30 %
13.07.2020 09:37 16,3 C 68 % 1024,8 hPa 0,0 l/m 19,3 km/h (3 Bft) O-SO 112 1 min 0,000 mm 2,7 UV-I 552 W/m 10,4 C 16,3 C 27,4 km/h (4 Bft) 95,65 %
13.07.2020 09:36 16,2 C 69 % 1024,9 hPa 0,0 l/m 14,5 km/h (3 Bft) O-SO 112 1 min 0,000 mm 2,7 UV-I 547 W/m 10,5 C 16,2 C 19,3 km/h (3 Bft) 100,00 %
13.07.2020 09:35 16,2 C 67 % 1024,9 hPa 0,0 l/m 17,7 km/h (3 Bft) SO 135 1 min 0,000 mm 2,7 UV-I 547 W/m 10,1 C 16,2 C 22,5 km/h (4 Bft) 91,30 %
13.07.2020 09:34 16,2 C 68 % 1024,9 hPa 0,0 l/m 14,5 km/h (3 Bft) SO 135 1 min 0,000 mm 2,7 UV-I 541 W/m 10,3 C 16,2 C 19,3 km/h (3 Bft) 91,30 %
13.07.2020 09:33 16,2 C 68 % 1024,8 hPa 0,0 l/m 16,1 km/h (3 Bft) SO 135 1 min 0,000 mm 2,7 UV-I 541 W/m 10,3 C 16,2 C 22,5 km/h (4 Bft) 95,65 %
13.07.2020 09:32 16,1 C 69 % 1024,8 hPa 0,0 l/m 16,1 km/h (3 Bft) SO 135 1 min 0,000 mm 2,6 UV-I 536 W/m 10,4 C 16,1 C 22,5 km/h (4 Bft) 100,00 %
13.07.2020 09:31 16,1 C 69 % 1024,9 hPa 0,0 l/m 14,5 km/h (3 Bft) O-SO 112 1 min 0,000 mm 2,6 UV-I 536 W/m 10,4 C 16,1 C 19,3 km/h (3 Bft) 100,00 %
13.07.2020 09:30 16,0 C 72 % 1024,9 hPa 0,0 l/m 14,5 km/h (3 Bft) O-SO 112 1 min 0,000 mm 2,6 UV-I 533 W/m 11,0 C 16,0 C 19,3 km/h (3 Bft) 100,00 %
13.07.2020 09:29 15,9 C 70 % 1024,9 hPa 0,0 l/m 14,5 km/h (3 Bft) O-SO 112 1 min 0,000 mm 2,6 UV-I 531 W/m 10,4 C 15,9 C 19,3 km/h (3 Bft) 100,00 %
13.07.2020 09:28 15,9 C 74 % 1024,9 hPa 0,0 l/m 12,9 km/h (3 Bft) O-SO 112 1 min 0,000 mm 2,5 UV-I 527 W/m 11,3 C 15,9 C 14,5 km/h (3 Bft) 82,61 %
13.07.2020 09:27 15,8 C 69 % 1024,9 hPa 0,0 l/m 12,9 km/h (3 Bft) O-SO 112 1 min 0,000 mm 2,5 UV-I 526 W/m 10,1 C 15,8 C 17,7 km/h (3 Bft) 100,00 %
13.07.2020 09:26 15,8 C 69 % 1024,9 hPa 0,0 l/m 17,7 km/h (3 Bft) O-SO 112 1 min 0,000 mm 2,5 UV-I 524 W/m 10,1 C 15,8 C 22,5 km/h (4 Bft) 95,65 %
13.07.2020 09:25 15,8 C 69 % 1024,9 hPa 0,0 l/m 14,5 km/h (3 Bft) O-SO 112 1 min 0,000 mm 2,5 UV-I 520 W/m 10,1 C 15,8 C 20,9 km/h (4 Bft) 95,65 %
13.07.2020 09:24 15,8 C 67 % 1024,9 hPa 0,0 l/m 16,1 km/h (3 Bft) O-SO 112 1 min 0,000 mm 2,5 UV-I 519 W/m 9,7 C 15,8 C 20,9 km/h (4 Bft) 95,65 %
13.07.2020 09:23 15,8 C 68 % 1024,9 hPa 0,0 l/m 19,3 km/h (3 Bft) O-SO 112 1 min 0,000 mm 2,4 UV-I 517 W/m 9,9 C 15,8 C 29,0 km/h (5 Bft) 91,30 %
13.07.2020 09:22 15,9 C 68 % 1024,9 hPa 0,0 l/m 20,9 km/h (4 Bft) O-SO 112 1 min 0,000 mm 2,4 UV-I 513 W/m 10,0 C 15,9 C 29,0 km/h (5 Bft) 100,00 %
13.07.2020 09:21 15,9 C 70 % 1025,0 hPa 0,0 l/m 17,7 km/h (3 Bft) O-SO 112 1 min 0,000 mm 2,4 UV-I 512 W/m 10,4 C 15,9 C 24,1 km/h (4 Bft) 100,00 %
13.07.2020 09:20 15,9 C 69 % 1024,9 hPa 0,0 l/m 17,7 km/h (3 Bft) O-SO 112 1 min 0,000 mm 2,4 UV-I 510 W/m 10,2 C 15,9 C 25,7 km/h (4 Bft) 86,96 %
13.07.2020 09:19 15,8 C 71 % 1025,0 hPa 0,0 l/m 16,1 km/h (3 Bft) O-SO 112 1 min 0,000 mm 2,4 UV-I 506 W/m 10,6 C 15,8 C 25,7 km/h (4 Bft) 100,00 %
13.07.2020 09:18 15,8 C 72 % 1024,9 hPa 0,0 l/m 14,5 km/h (3 Bft) O-SO 112 1 min 0,000 mm 2,3 UV-I 501 W/m 10,8 C 15,8 C 20,9 km/h (4 Bft) 100,00 %
13.07.2020 09:17 15,7 C 74 % 1025,0 hPa 0,0 l/m 11,3 km/h (2 Bft) O-SO 112 1 min 0,000 mm 2,3 UV-I 499 W/m 11,1 C 15,7 C 19,3 km/h (3 Bft) 100,00 %
13.07.2020 09:16 15,7 C 73 % 1025,0 hPa 0,0 l/m 8,0 km/h (2 Bft) O-SO 112 1 min 0,000 mm 2,3 UV-I 497 W/m 10,9 C 15,7 C 11,3 km/h (2 Bft) 95,65 %
13.07.2020 09:15 15,6 C 72 % 1025,0 hPa 0,0 l/m 11,3 km/h (2 Bft) O-SO 112 1 min 0,000 mm 2,3 UV-I 497 W/m 10,6 C 15,6 C 16,1 km/h (3 Bft) 91,30 %
13.07.2020 09:14 15,6 C 71 % 1025,0 hPa 0,0 l/m 12,9 km/h (3 Bft) SO 135 1 min 0,000 mm 2,3 UV-I 494 W/m 10,4 C 15,6 C 17,7 km/h (3 Bft) 95,65 %
13.07.2020 09:13 15,5 C 73 % 1025,0 hPa 0,0 l/m 14,5 km/h (3 Bft) SO 135 1 min 0,000 mm 2,2 UV-I 497 W/m 10,7 C 15,5 C 17,7 km/h (3 Bft) 100,00 %
13.07.2020 09:12 15,4 C 73 % 1025,1 hPa 0,0 l/m 11,3 km/h (2 Bft) SO 135 1 min 0,000 mm 2,2 UV-I 490 W/m 10,6 C 15,4 C 17,7 km/h (3 Bft) 95,65 %
13.07.2020 09:11 15,4 C 73 % 1024,9 hPa 0,0 l/m 11,3 km/h (2 Bft) SO 135 1 min 0,000 mm 2,2 UV-I 489 W/m 10,6 C 15,4 C 14,5 km/h (3 Bft) 100,00 %
13.07.2020 09:10 15,4 C 71 % 1025,0 hPa 0,0 l/m 11,3 km/h (2 Bft) O-SO 112 1 min 0,000 mm 2,2 UV-I 487 W/m 10,2 C 15,4 C 14,5 km/h (3 Bft) 100,00 %
13.07.2020 09:09 15,3 C 74 % 1025,1 hPa 0,0 l/m 11,3 km/h (2 Bft) O-SO 112 1 min 0,000 mm 2,1 UV-I 443 W/m 10,7 C 15,3 C 16,1 km/h (3 Bft) 100,00 %
13.07.2020 09:08 15,3 C 72 % 1025,0 hPa 0,0 l/m 9,7 km/h (2 Bft) O-SO 112 1 min 0,000 mm 2,1 UV-I 482 W/m 10,3 C 15,3 C 14,5 km/h (3 Bft) 95,65 %
13.07.2020 09:07 15,2 C 71 % 1025,0 hPa 0,0 l/m 16,1 km/h (3 Bft) O-SO 112 1 min 0,000 mm 2,1 UV-I 476 W/m 10,0 C 15,2 C 19,3 km/h (3 Bft) 100,00 %
13.07.2020 09:06 15,2 C 73 % 1025,0 hPa 0,0 l/m 14,5 km/h (3 Bft) SO 135 1 min 0,000 mm 2,1 UV-I 475 W/m 10,4 C 15,2 C 19,3 km/h (3 Bft) 95,65 %
13.07.2020 09:05 15,2 C 72 % 1025,1 hPa 0,0 l/m 16,1 km/h (3 Bft) O-SO 112 1 min 0,000 mm 2,1 UV-I 473 W/m 10,2 C 15,2 C 19,3 km/h (3 Bft) 100,00 %
13.07.2020 09:04 15,1 C 73 % 1025,1 hPa 0,0 l/m 12,9 km/h (3 Bft) SO 135 1 min 0,000 mm 2,1 UV-I 468 W/m 10,3 C 15,1 C 16,1 km/h (3 Bft) 100,00 %
13.07.2020 09:03 15,1 C 76 % 1025,2 hPa 0,0 l/m 9,7 km/h (2 Bft) SO 135 1 min 0,000 mm 2,0 UV-I 466 W/m 10,9 C 15,1 C 12,9 km/h (3 Bft) 100,00 %
13.07.2020 09:02 15,0 C 75 % 1025,1 hPa 0,0 l/m 11,3 km/h (2 Bft) O-SO 112 1 min 0,000 mm 2,0 UV-I 464 W/m 10,6 C 15,0 C 16,1 km/h (3 Bft) 100,00 %
13.07.2020 09:01 14,9 C 74 % 1025,1 hPa 0,0 l/m 8,0 km/h (2 Bft) SO 135 1 min 0,000 mm 2,0 UV-I 462 W/m 10,3 C 14,9 C 14,5 km/h (3 Bft) 95,65 %
13.07.2020 09:00 14,8 C 75 % 1025,1 hPa 0,0 l/m 9,7 km/h (2 Bft) O-SO 112 1 min 0,203 mm 2,0 UV-I 459 W/m 10,4 C 14,8 C 14,5 km/h (3 Bft) 100,00 %
13.07.2020 08:59 14,8 C 74 % 1025,2 hPa 0,0 l/m 11,3 km/h (2 Bft) O-SO 112 1 min 0,000 mm 2,0 UV-I 455 W/m 10,2 C 14,8 C 16,1 km/h (3 Bft) 100,00 %
13.07.2020 08:58 14,7 C 74 % 1025,2 hPa 0,0 l/m 11,3 km/h (2 Bft) SO 135 1 min 0,000 mm 1,9 UV-I 454 W/m 10,1 C 14,7 C 14,5 km/h (3 Bft) 100,00 %
13.07.2020 08:57 14,7 C 74 % 1025,1 hPa 0,0 l/m 14,5 km/h (3 Bft) O-SO 112 1 min 0,000 mm 1,9 UV-I 452 W/m 10,1 C 14,7 C 19,3 km/h (3 Bft) 100,00 %
13.07.2020 08:56 14,7 C 74 % 1025,1 hPa 0,0 l/m 12,9 km/h (3 Bft) SO 135 1 min 0,000 mm 1,9 UV-I 448 W/m 10,1 C 14,7 C 16,1 km/h (3 Bft) 95,65 %
13.07.2020 08:55 14,6 C 75 % 1025,2 hPa 0,0 l/m 14,5 km/h (3 Bft) SO 135 1 min 0,000 mm 1,9 UV-I 445 W/m 10,2 C 14,6 C 19,3 km/h (3 Bft) 100,00 %
13.07.2020 08:54 14,5 C 78 % 1025,2 hPa 0,0 l/m 8,0 km/h (2 Bft) O-SO 112 1 min 0,000 mm 1,9 UV-I 441 W/m 10,7 C 14,5 C 11,3 km/h (2 Bft) 100,00 %
13.07.2020 08:53 14,4 C 75 % 1025,1 hPa 0,0 l/m 11,3 km/h (2 Bft) O-SO 112 1 min 0,000 mm 1,8 UV-I 434 W/m 10,0 C 14,4 C 16,1 km/h (3 Bft) 100,00 %
13.07.2020 08:52 14,4 C 75 % 1025,1 hPa 0,0 l/m 14,5 km/h (3 Bft) SO 135 1 min 0,000 mm 1,8 UV-I 431 W/m 10,0 C 14,4 C 17,7 km/h (3 Bft) 95,65 %
13.07.2020 08:51 14,3 C 74 % 1025,2 hPa 0,0 l/m 14,5 km/h (3 Bft) SO 135 1 min 0,000 mm 1,8 UV-I 427 W/m 9,7 C 14,3 C 17,7 km/h (3 Bft) 100,00 %
13.07.2020 08:50 14,3 C 75 % 1025,1 hPa 0,0 l/m 16,1 km/h (3 Bft) O-SO 112 1 min 0,000 mm 1,8 UV-I 422 W/m 9,9 C 14,3 C 17,7 km/h (3 Bft) 100,00 %
13.07.2020 08:49 14,3 C 75 % 1025,2 hPa 0,0 l/m 16,1 km/h (3 Bft) O-SO 112 1 min 0,000 mm 1,8 UV-I 417 W/m 9,9 C 14,3 C 19,3 km/h (3 Bft) 95,65 %
13.07.2020 08:48 14,3 C 76 % 1025,1 hPa 0,0 l/m 14,5 km/h (3 Bft) O-SO 112 1 min 0,000 mm 1,7 UV-I 411 W/m 10,1 C 14,3 C 20,9 km/h (4 Bft) 100,00 %
13.07.2020 08:47 14,3 C 75 % 1025,1 hPa 0,0 l/m 14,5 km/h (3 Bft) SO 135 1 min 0,000 mm 1,7 UV-I 403 W/m 9,9 C 14,3 C 17,7 km/h (3 Bft) 100,00 %
13.07.2020 08:46 14,3 C 75 % 1025,2 hPa 0,0 l/m 14,5 km/h (3 Bft) SO 135 1 min 0,000 mm 1,7 UV-I 397 W/m 9,9 C 14,3 C 24,1 km/h (4 Bft) 100,00 %
13.07.2020 08:45 14,3 C 74 % 1025,1 hPa 0,0 l/m 17,7 km/h (3 Bft) SO 135 1 min 0,000 mm 1,7 UV-I 390 W/m 9,7 C 14,3 C 22,5 km/h (4 Bft) 82,61 %
13.07.2020 08:44 14,3 C 74 % 1025,1 hPa 0,0 l/m 14,5 km/h (3 Bft) SO 135 1 min 0,000 mm 1,7 UV-I 385 W/m 9,7 C 14,3 C 17,7 km/h (3 Bft) 91,30 %
13.07.2020 08:43 14,3 C 76 % 1025,1 hPa 0,0 l/m 14,5 km/h (3 Bft) SO 135 1 min 0,000 mm 1,7 UV-I 380 W/m 10,1 C 14,3 C 17,7 km/h (3 Bft) 100,00 %
13.07.2020 08:42 14,2 C 76 % 1025,1 hPa 0,0 l/m 12,9 km/h (3 Bft) SO 135 1 min 0,000 mm 1,6 UV-I 374 W/m 10,0 C 14,2 C 16,1 km/h (3 Bft) 95,65 %
13.07.2020 08:41 14,2 C 76 % 1025,1 hPa 0,0 l/m 12,9 km/h (3 Bft) SO 135 1 min 0,000 mm 1,6 UV-I 360 W/m 10,0 C 14,2 C 17,7 km/h (3 Bft) 100,00 %
13.07.2020 08:40 14,1 C 77 % 1025,0 hPa 0,0 l/m 12,9 km/h (3 Bft) O-SO 112 1 min 0,000 mm 1,6 UV-I 352 W/m 10,1 C 14,1 C 14,5 km/h (3 Bft) 95,65 %
13.07.2020 08:39 14,1 C 77 % 1025,1 hPa 0,0 l/m 11,3 km/h (2 Bft) O-SO 112 1 min 0,000 mm 1,6 UV-I 345 W/m 10,1 C 14,1 C 14,5 km/h (3 Bft) 100,00 %
13.07.2020 08:38 14,1 C 75 % 1025,1 hPa 0,0 l/m 14,5 km/h (3 Bft) O-SO 112 1 min 0,000 mm 1,6 UV-I 336 W/m 9,7 C 14,1 C 20,9 km/h (4 Bft) 91,30 %
13.07.2020 08:37 14,0 C 75 % 1025,1 hPa 0,0 l/m 17,7 km/h (3 Bft) O-SO 112 1 min 0,000 mm 1,6 UV-I 327 W/m 9,6 C 14,0 C 19,3 km/h (3 Bft) 95,65 %
13.07.2020 08:36 13,9 C 76 % 1025,1 hPa 0,0 l/m 12,9 km/h (3 Bft) O-SO 112 1 min 0,000 mm 1,5 UV-I 311 W/m 9,7 C 13,9 C 19,3 km/h (3 Bft) 100,00 %
13.07.2020 08:35 13,9 C 77 % 1025,1 hPa 0,0 l/m 11,3 km/h (2 Bft) O-SO 112 1 min 0,000 mm 1,5 UV-I 301 W/m 9,9 C 13,9 C 16,1 km/h (3 Bft) 95,65 %
13.07.2020 08:34 13,9 C 75 % 1025,1 hPa 0,0 l/m 14,5 km/h (3 Bft) O-SO 112 1 min 0,000 mm 1,5 UV-I 288 W/m 9,5 C 13,9 C 17,7 km/h (3 Bft) 100,00 %
13.07.2020 08:33 13,8 C 76 % 1025,1 hPa 0,0 l/m 16,1 km/h (3 Bft) O-SO 112 1 min 0,000 mm 1,5 UV-I 276 W/m 9,6 C 13,8 C 20,9 km/h (4 Bft) 95,65 %
13.07.2020 08:32 13,8 C 76 % 1025,1 hPa 0,0 l/m 14,5 km/h (3 Bft) O-SO 112 1 min 0,000 mm 1,5 UV-I 271 W/m 9,6 C 13,8 C 16,1 km/h (3 Bft) 100,00 %
13.07.2020 08:31 13,8 C 76 % 1025,1 hPa 0,0 l/m 14,5 km/h (3 Bft) SO 135 1 min 0,000 mm 1,4 UV-I 225 W/m 9,6 C 13,8 C 20,9 km/h (4 Bft) 95,65 %
13.07.2020 08:30 13,8 C 76 % 1025,0 hPa 0,0 l/m 14,5 km/h (3 Bft) O-SO 112 1 min 0,000 mm 1,4 UV-I 253 W/m 9,6 C 13,8 C 16,1 km/h (3 Bft) 95,65 %
13.07.2020 08:29 13,8 C 76 % 1025,1 hPa 0,0 l/m 16,1 km/h (3 Bft) O-SO 112 1 min 0,000 mm 1,4 UV-I 251 W/m 9,6 C 13,8 C 19,3 km/h (3 Bft) 100,00 %
13.07.2020 08:28 13,8 C 76 % 1025,1 hPa 0,0 l/m 14,5 km/h (3 Bft) O-SO 112 1 min 0,000 mm 1,4 UV-I 248 W/m 9,6 C 13,8 C 19,3 km/h (3 Bft) 95,65 %
13.07.2020 08:27 13,7 C 78 % 1025,0 hPa 0,0 l/m 14,5 km/h (3 Bft) SO 135 1 min 0,000 mm 1,4 UV-I 243 W/m 9,9 C 13,7 C 20,9 km/h (4 Bft) 100,00 %
13.07.2020 08:26 13,7 C 77 % 1025,1 hPa 0,0 l/m 12,9 km/h (3 Bft) O-SO 112 1 min 0,000 mm 1,3 UV-I 244 W/m 9,7 C 13,7 C 16,1 km/h (3 Bft) 100,00 %
13.07.2020 08:25 13,7 C 77 % 1025,0 hPa 0,0 l/m 12,9 km/h (3 Bft) O-SO 112 1 min 0,000 mm 1,3 UV-I 246 W/m 9,7 C 13,7 C 16,1 km/h (3 Bft) 100,00 %
13.07.2020 08:24 13,7 C 77 % 1025,0 hPa 0,0 l/m 14,5 km/h (3 Bft) O-SO 112 1 min 0,000 mm 1,3 UV-I 253 W/m 9,7 C 13,7 C 17,7 km/h (3 Bft) 95,65 %
13.07.2020 08:23 13,6 C 77 % 1025,0 hPa 0,0 l/m 12,9 km/h (3 Bft) SO 135 1 min 0,000 mm 1,3 UV-I 251 W/m 9,6 C 13,6 C 16,1 km/h (3 Bft) 95,65 %
13.07.2020 08:22 13,6 C 77 % 1025,0 hPa 0,0 l/m 14,5 km/h (3 Bft) SO 135 1 min 0,000 mm 1,3 UV-I 244 W/m 9,6 C 13,6 C 19,3 km/h (3 Bft) 100,00 %
13.07.2020 08:21 13,6 C 76 % 1025,0 hPa 0,0 l/m 14,5 km/h (3 Bft) O-SO 112 1 min 0,000 mm 1,3 UV-I 246 W/m 9,4 C 13,6 C 16,1 km/h (3 Bft) 95,65 %
13.07.2020 08:20 13,6 C 77 % 1025,0 hPa 0,0 l/m 12,9 km/h (3 Bft) SO 135 1 min 0,000 mm 1,3 UV-I 243 W/m 9,6 C 13,6 C 16,1 km/h (3 Bft) 100,00 %
13.07.2020 08:19 13,6 C 75 % 1025,0 hPa 0,0 l/m 14,5 km/h (3 Bft) SO 135 1 min 0,000 mm 1,3 UV-I 267 W/m 9,3 C 13,6 C 20,9 km/h (4 Bft) 95,65 %
13.07.2020 08:18 13,6 C 76 % 1024,9 hPa 0,0 l/m 12,9 km/h (3 Bft) SO 135 1 min 0,000 mm 1,2 UV-I 246 W/m 9,4 C 13,6 C 20,9 km/h (4 Bft) 95,65 %
13.07.2020 08:17 13,6 C 75 % 1024,9 hPa 0,0 l/m 16,1 km/h (3 Bft) SO 135 1 min 0,000 mm 1,2 UV-I 248 W/m 9,3 C 13,6 C 20,9 km/h (4 Bft) 100,00 %
13.07.2020 08:16 13,5 C 77 % 1024,9 hPa 0,0 l/m 14,5 km/h (3 Bft) SO 135 1 min 0,000 mm 1,2 UV-I 255 W/m 9,5 C 13,5 C 19,3 km/h (3 Bft) 100,00 %
13.07.2020 08:15 13,5 C 77 % 1024,9 hPa 0,0 l/m 11,3 km/h (2 Bft) O-SO 112 1 min 0,000 mm 1,2 UV-I 269 W/m 9,5 C 13,5 C 17,7 km/h (3 Bft) 100,00 %
13.07.2020 08:14 13,4 C 77 % 1024,9 hPa 0,0 l/m 12,9 km/h (3 Bft) O-SO 112 1 min 0,000 mm 1,2 UV-I 260 W/m 9,5 C 13,4 C 17,7 km/h (3 Bft) 100,00 %
13.07.2020 08:13 13,4 C 77 % 1024,9 hPa 0,0 l/m 14,5 km/h (3 Bft) O-SO 112 1 min 0,000 mm 1,2 UV-I 271 W/m 9,5 C 13,4 C 16,1 km/h (3 Bft) 100,00 %
13.07.2020 08:12 13,4 C 78 % 1024,9 hPa 0,0 l/m 14,5 km/h (3 Bft) SO 135 1 min 0,000 mm 1,2 UV-I 272 W/m 9,6 C 13,4 C 19,3 km/h (3 Bft) 100,00 %
13.07.2020 08:11 13,4 C 78 % 1024,9 hPa 0,0 l/m 12,9 km/h (3 Bft) O-SO 112 1 min 0,000 mm 1,1 UV-I 271 W/m 9,6 C 13,4 C 16,1 km/h (3 Bft) 100,00 %
13.07.2020 08:10 13,3 C 78 % 1024,9 hPa 0,0 l/m 14,5 km/h (3 Bft) SO 135 1 min 0,000 mm 1,1 UV-I 272 W/m 9,5 C 13,3 C 17,7 km/h (3 Bft) 100,00 %
13.07.2020 08:09 13,3 C 78 % 1024,9 hPa 0,0 l/m 12,9 km/h (3 Bft) SO 135 1 min 0,000 mm 1,1 UV-I 272 W/m 9,5 C 13,3 C 17,7 km/h (3 Bft) 100,00 %
13.07.2020 08:08 13,3 C 78 % 1024,9 hPa 0,0 l/m 11,3 km/h (2 Bft) O-SO 112 1 min 0,000 mm 1,1 UV-I 274 W/m 9,5 C 13,3 C 12,9 km/h (3 Bft) 100,00 %
13.07.2020 08:07 13,3 C 78 % 1024,9 hPa 0,0 l/m 14,5 km/h (3 Bft) O-SO 112 1 min 0,000 mm 1,1 UV-I 276 W/m 9,5 C 13,3 C 17,7 km/h (3 Bft) 100,00 %
13.07.2020 08:06 13,2 C 78 % 1024,9 hPa 0,0 l/m 14,5 km/h (3 Bft) O-SO 112 1 min 0,000 mm 1,1 UV-I 278 W/m 9,4 C 13,2 C 19,3 km/h (3 Bft) 100,00 %
13.07.2020 08:05 13,2 C 78 % 1024,9 hPa 0,0 l/m 12,9 km/h (3 Bft) O-SO 112 1 min 0,000 mm 1,1 UV-I 279 W/m 9,4 C 13,2 C 17,7 km/h (3 Bft) 100,00 %
13.07.2020 08:04 13,2 C 79 % 1024,9 hPa 0,0 l/m 12,9 km/h (3 Bft) O-SO 112 1 min 0,000 mm 1,0 UV-I 281 W/m 9,6 C 13,2 C 16,1 km/h (3 Bft) 100,00 %
13.07.2020 08:03 13,2 C 78 % 1024,9 hPa 0,0 l/m 11,3 km/h (2 Bft) SO 135 1 min 0,000 mm 1,0 UV-I 283 W/m 9,4 C 13,2 C 14,5 km/h (3 Bft) 100,00 %
13.07.2020 08:02 13,1 C 79 % 1025,0 hPa 0,0 l/m 12,9 km/h (3 Bft) O-SO 112 1 min 0,000 mm 1,0 UV-I 283 W/m 9,5 C 13,1 C 17,7 km/h (3 Bft) 100,00 %
13.07.2020 08:01 13,1 C 79 % 1024,9 hPa 0,0 l/m 14,5 km/h (3 Bft) SO 135 1 min 0,000 mm 1,0 UV-I 285 W/m 9,5 C 13,1 C 17,7 km/h (3 Bft) 95,65 %
13.07.2020 08:00 13,1 C 79 % 1025,0 hPa 0,0 l/m 12,9 km/h (3 Bft) SO 135 1 min 0,127 mm 1,0 UV-I 285 W/m 9,5 C 13,1 C 17,7 km/h (3 Bft) 100,00 %
13.07.2020 07:59 13,1 C 79 % 1025,0 hPa 0,0 l/m 12,9 km/h (3 Bft) SO 135 1 min 0,000 mm 1,0 UV-I 285 W/m 9,5 C 13,1 C 17,7 km/h (3 Bft) 95,65 %
13.07.2020 07:58 13,0 C 79 % 1024,9 hPa 0,0 l/m 12,9 km/h (3 Bft) O-SO 112 1 min 0,000 mm 1,0 UV-I 285 W/m 9,4 C 13,0 C 14,5 km/h (3 Bft) 91,30 %
13.07.2020 07:57 13,0 C 79 % 1025,0 hPa 0,0 l/m 12,9 km/h (3 Bft) O-SO 112 1 min 0,000 mm 1,0 UV-I 285 W/m 9,4 C 13,0 C 19,3 km/h (3 Bft) 100,00 %
13.07.2020 07:56 12,9 C 79 % 1025,0 hPa 0,0 l/m 14,5 km/h (3 Bft) O-SO 112 1 min 0,000 mm 0,9 UV-I 283 W/m 9,3 C 12,9 C 19,3 km/h (3 Bft) 100,00 %
13.07.2020 07:55 12,9 C 81 % 1025,0 hPa 0,0 l/m 12,9 km/h (3 Bft) SO 135 1 min 0,000 mm 0,9 UV-I 283 W/m 9,7 C 12,9 C 19,3 km/h (3 Bft) 100,00 %
13.07.2020 07:54 12,9 C 80 % 1025,0 hPa 0,0 l/m 11,3 km/h (2 Bft) O-SO 112 1 min 0,000 mm 0,9 UV-I 279 W/m 9,5 C 12,9 C 14,5 km/h (3 Bft) 95,65 %
13.07.2020 07:53 12,9 C 80 % 1025,0 hPa 0,0 l/m 12,9 km/h (3 Bft) O-SO 112 1 min 0,000 mm 0,9 UV-I 276 W/m 9,5 C 12,9 C 16,1 km/h (3 Bft) 100,00 %
13.07.2020 07:52 12,8 C 80 % 1025,1 hPa 0,0 l/m 11,3 km/h (2 Bft) O-SO 112 1 min 0,000 mm 0,9 UV-I 272 W/m 9,4 C 12,8 C 14,5 km/h (3 Bft) 100,00 %
13.07.2020 07:51 12,8 C 81 % 1025,1 hPa 0,0 l/m 12,9 km/h (3 Bft) O-SO 112 1 min 0,000 mm 0,9 UV-I 267 W/m 9,6 C 12,8 C 16,1 km/h (3 Bft) 100,00 %
13.07.2020 07:50 12,8 C 80 % 1025,1 hPa 0,0 l/m 11,3 km/h (2 Bft) O-SO 112 1 min 0,000 mm 0,9 UV-I 262 W/m 9,4 C 12,8 C 16,1 km/h (3 Bft) 100,00 %
13.07.2020 07:49 12,7 C 81 % 1025,1 hPa 0,0 l/m 11,3 km/h (2 Bft) SO 135 1 min 0,000 mm 0,8 UV-I 257 W/m 9,5 C 12,7 C 16,1 km/h (3 Bft) 100,00 %
13.07.2020 07:48 12,7 C 81 % 1025,1 hPa 0,0 l/m 11,3 km/h (2 Bft) O-SO 112 1 min 0,000 mm 0,8 UV-I 243 W/m 9,5 C 12,7 C 17,7 km/h (3 Bft) 100,00 %
13.07.2020 07:47 12,7 C 81 % 1025,2 hPa 0,0 l/m 11,3 km/h (2 Bft) O-SO 112 1 min 0,000 mm 0,8 UV-I 237 W/m 9,5 C 12,7 C 16,1 km/h (3 Bft) 100,00 %
13.07.2020 07:46 12,6 C 81 % 1025,2 hPa 0,0 l/m 9,7 km/h (2 Bft) O-SO 112 1 min 0,000 mm 0,8 UV-I 232 W/m 9,4 C 12,6 C 12,9 km/h (3 Bft) 100,00 %
13.07.2020 07:45 12,6 C 81 % 1025,2 hPa 0,0 l/m 11,3 km/h (2 Bft) O-SO 112 1 min 0,000 mm 0,8 UV-I 225 W/m 9,4 C 12,6 C 16,1 km/h (3 Bft) 100,00 %
13.07.2020 07:44 12,5 C 80 % 1025,2 hPa 0,0 l/m 14,5 km/h (3 Bft) O-SO 112 1 min 0,000 mm 0,8 UV-I 220 W/m 9,1 C 12,5 C 17,7 km/h (3 Bft) 95,65 %
13.07.2020 07:43 12,4 C 82 % 1025,2 hPa 0,0 l/m 14,5 km/h (3 Bft) O-SO 112 1 min 0,000 mm 0,8 UV-I 213 W/m 9,4 C 12,4 C 17,7 km/h (3 Bft) 100,00 %
13.07.2020 07:42 12,4 C 82 % 1025,2 hPa 0,0 l/m 11,3 km/h (2 Bft) O-SO 112 1 min 0,000 mm 0,8 UV-I 204 W/m 9,4 C 12,4 C 12,9 km/h (3 Bft) 100,00 %
13.07.2020 07:41 12,4 C 82 % 1025,2 hPa 0,0 l/m 11,3 km/h (2 Bft) O-SO 112 1 min 0,000 mm 0,7 UV-I 200 W/m 9,4 C 12,4 C 16,1 km/h (3 Bft) 100,00 %
13.07.2020 07:40 12,4 C 81 % 1025,1 hPa 0,0 l/m 12,9 km/h (3 Bft) O-SO 112 1 min 0,000 mm 0,7 UV-I 197 W/m 9,2 C 12,4 C 16,1 km/h (3 Bft) 95,65 %
13.07.2020 07:39 12,3 C 82 % 1025,2 hPa 0,0 l/m 12,9 km/h (3 Bft) O-SO 112 1 min 0,000 mm 0,7 UV-I 195 W/m 9,3 C 12,3 C 16,1 km/h (3 Bft) 95,65 %
13.07.2020 07:38 12,3 C 83 % 1025,1 hPa 0,0 l/m 11,3 km/h (2 Bft) O-SO 112 1 min 0,000 mm 0,7 UV-I 193 W/m 9,5 C 12,3 C 14,5 km/h (3 Bft) 100,00 %
13.07.2020 07:37 12,2 C 83 % 1025,1 hPa 0,0 l/m 11,3 km/h (2 Bft) O-SO 112 1 min 0,000 mm 0,7 UV-I 193 W/m 9,4 C 12,2 C 12,9 km/h (3 Bft) 100,00 %
13.07.2020 07:36 12,2 C 83 % 1025,2 hPa 0,0 l/m 11,3 km/h (2 Bft) SO 135 1 min 0,000 mm 0,7 UV-I 193 W/m 9,4 C 12,2 C 14,5 km/h (3 Bft) 100,00 %
13.07.2020 07:35 12,2 C 83 % 1025,2 hPa 0,0 l/m 9,7 km/h (2 Bft) O-SO 112 1 min 0,000 mm 0,7 UV-I 193 W/m 9,4 C 12,2 C 11,3 km/h (2 Bft) 95,65 %
13.07.2020 07:34 12,1 C 83 % 1025,2 hPa 0,0 l/m 12,9 km/h (3 Bft) O-SO 112 1 min 0,000 mm 0,7 UV-I 195 W/m 9,3 C 12,1 C 14,5 km/h (3 Bft) 100,00 %
13.07.2020 07:33 12,1 C 84 % 1025,1 hPa 0,0 l/m 12,9 km/h (3 Bft) O-SO 112 1 min 0,000 mm 0,7 UV-I 197 W/m 9,5 C 12,1 C 14,5 km/h (3 Bft) 100,00 %
13.07.2020 07:32 12,1 C 84 % 1025,1 hPa 0,0 l/m 12,9 km/h (3 Bft) O-SO 112 1 min 0,000 mm 0,6 UV-I 199 W/m 9,5 C 12,1 C 17,7 km/h (3 Bft) 100,00 %
13.07.2020 07:31 12,0 C 83 % 1025,1 hPa 0,0 l/m 11,3 km/h (2 Bft) O-SO 112 1 min 0,000 mm 0,6 UV-I 200 W/m 9,2 C 12,0 C 14,5 km/h (3 Bft) 100,00 %
13.07.2020 07:30 11,9 C 84 % 1025,1 hPa 0,0 l/m 11,3 km/h (2 Bft) O-SO 112 1 min 0,000 mm 0,6 UV-I 202 W/m 9,3 C 11,9 C 14,5 km/h (3 Bft) 95,65 %
13.07.2020 07:29 11,9 C 85 % 1025,1 hPa 0,0 l/m 9,7 km/h (2 Bft) SO 135 1 min 0,000 mm 0,6 UV-I 202 W/m 9,5 C 11,9 C 12,9 km/h (3 Bft) 100,00 %
13.07.2020 07:28 11,8 C 84 % 1025,2 hPa 0,0 l/m 12,9 km/h (3 Bft) O-SO 112 1 min 0,000 mm 0,6 UV-I 204 W/m 9,2 C 11,8 C 16,1 km/h (3 Bft) 95,65 %
13.07.2020 07:27 11,8 C 84 % 1025,1 hPa 0,0 l/m 11,3 km/h (2 Bft) O-SO 112 1 min 0,000 mm 0,6 UV-I 204 W/m 9,2 C 11,8 C 17,7 km/h (3 Bft) 100,00 %
13.07.2020 07:26 11,8 C 85 % 1025,1 hPa 0,0 l/m 11,3 km/h (2 Bft) O-SO 112 1 min 0,000 mm 0,6 UV-I 206 W/m 9,4 C 11,8 C 14,5 km/h (3 Bft) 100,00 %
13.07.2020 07:25 11,7 C 85 % 1025,1 hPa 0,0 l/m 9,7 km/h (2 Bft) SO 135 1 min 0,000 mm 0,6 UV-I 204 W/m 9,3 C 11,7 C 14,5 km/h (3 Bft) 100,00 %
13.07.2020 07:24 11,7 C 86 % 1025,1 hPa 0,0 l/m 8,0 km/h (2 Bft) SO 135 1 min 0,000 mm 0,6 UV-I 204 W/m 9,4 C 11,7 C 11,3 km/h (2 Bft) 91,30 %
13.07.2020 07:23 11,6 C 85 % 1025,1 hPa 0,0 l/m 9,7 km/h (2 Bft) O-SO 112 1 min 0,000 mm 0,5 UV-I 202 W/m 9,2 C 11,6 C 12,9 km/h (3 Bft) 100,00 %
13.07.2020 07:22 11,6 C 85 % 1025,0 hPa 0,0 l/m 11,3 km/h (2 Bft) O-SO 112 1 min 0,000 mm 0,5 UV-I 200 W/m 9,2 C 11,6 C 14,5 km/h (3 Bft) 100,00 %
13.07.2020 07:21 11,5 C 85 % 1025,1 hPa 0,0 l/m 11,3 km/h (2 Bft) SO 135 1 min 0,000 mm 0,5 UV-I 197 W/m 9,1 C 11,5 C 14,5 km/h (3 Bft) 100,00 %
13.07.2020 07:20 11,4 C 85 % 1025,0 hPa 0,0 l/m 11,3 km/h (2 Bft) O-SO 112 1 min 0,000 mm 0,5 UV-I 195 W/m 9,0 C 11,4 C 14,5 km/h (3 Bft) 91,30 %
13.07.2020 07:19 11,4 C 85 % 1025,1 hPa 0,0 l/m 11,3 km/h (2 Bft) O-SO 112 1 min 0,000 mm 0,5 UV-I 190 W/m 9,0 C 11,4 C 14,5 km/h (3 Bft) 100,00 %
13.07.2020 07:18 11,3 C 86 % 1025,1 hPa 0,0 l/m 11,3 km/h (2 Bft) O-SO 112 1 min 0,000 mm 0,5 UV-I 188 W/m 9,0 C 11,3 C 14,5 km/h (3 Bft) 100,00 %
13.07.2020 07:17 11,3 C 86 % 1025,1 hPa 0,0 l/m 9,7 km/h (2 Bft) SO 135 1 min 0,000 mm 0,5 UV-I 186 W/m 9,0 C 11,3 C 12,9 km/h (3 Bft) 100,00 %
13.07.2020 07:16 11,2 C 86 % 1025,0 hPa 0,0 l/m 11,3 km/h (2 Bft) O-SO 112 1 min 0,000 mm 0,5 UV-I 183 W/m 8,9 C 11,2 C 14,5 km/h (3 Bft) 100,00 %
13.07.2020 07:15 11,2 C 86 % 1025,1 hPa 0,0 l/m 9,7 km/h (2 Bft) O-SO 112 1 min 0,000 mm 0,5 UV-I 181 W/m 8,9 C 11,2 C 12,9 km/h (3 Bft) 95,65 %
13.07.2020 07:14 11,1 C 86 % 1025,1 hPa 0,0 l/m 14,5 km/h (3 Bft) O-SO 112 1 min 0,000 mm 0,5 UV-I 178 W/m 8,8 C 11,1 C 16,1 km/h (3 Bft) 100,00 %
13.07.2020 07:13 11,1 C 87 % 1025,1 hPa 0,0 l/m 12,9 km/h (3 Bft) O-SO 112 1 min 0,000 mm 0,5 UV-I 174 W/m 9,0 C 11,1 C 17,7 km/h (3 Bft) 95,65 %
13.07.2020 07:12 11,0 C 88 % 1025,0 hPa 0,0 l/m 8,0 km/h (2 Bft) O-SO 112 1 min 0,000 mm 0,0 UV-I 171 W/m 9,1 C 11,0 C 12,9 km/h (3 Bft) 100,00 %
13.07.2020 07:11 10,9 C 87 % 1025,1 hPa 0,0 l/m 9,7 km/h (2 Bft) O-SO 112 1 min 0,000 mm 0,0 UV-I 169 W/m 8,8 C 10,9 C 12,9 km/h (3 Bft) 100,00 %
13.07.2020 07:10 10,8 C 88 % 1025,1 hPa 0,0 l/m 9,7 km/h (2 Bft) O-SO 112 1 min 0,000 mm 0,0 UV-I 167 W/m 8,9 C 10,8 C 12,9 km/h (3 Bft) 100,00 %
13.07.2020 07:09 10,8 C 88 % 1025,1 hPa 0,0 l/m 11,3 km/h (2 Bft) O-SO 112 1 min 0,000 mm 0,0 UV-I 163 W/m 8,9 C 10,8 C 12,9 km/h (3 Bft) 100,00 %
13.07.2020 07:08 10,8 C 88 % 1025,0 hPa 0,0 l/m 9,7 km/h (2 Bft) O-SO 112 1 min 0,000 mm 0,0 UV-I 162 W/m 8,9 C 10,8 C 12,9 km/h (3 Bft) 100,00 %
13.07.2020 07:07 10,7 C 88 % 1025,1 hPa 0,0 l/m 12,9 km/h (3 Bft) SO 135 1 min 0,000 mm 0,0 UV-I 156 W/m 8,8 C 10,7 C 17,7 km/h (3 Bft) 100,00 %
13.07.2020 07:06 10,7 C 88 % 1025,0 hPa 0,0 l/m 9,7 km/h (2 Bft) SO 135 1 min 0,000 mm 0,0 UV-I 155 W/m 8,8 C 10,7 C 11,3 km/h (2 Bft) 95,65 %
13.07.2020 07:05 10,6 C 89 % 1025,0 hPa 0,0 l/m 12,9 km/h (3 Bft) O-SO 112 1 min 0,000 mm 0,0 UV-I 153 W/m 8,9 C 10,6 C 14,5 km/h (3 Bft) 100,00 %
13.07.2020 07:04 10,6 C 89 % 1025,1 hPa 0,0 l/m 12,9 km/h (3 Bft) O-SO 112 0 min 0,000 mm 0,0 UV-I 148 W/m 8,9 C 10,6 C 14,5 km/h (3 Bft) 100,00 %
13.07.2020 07:03 10,5 C 89 % 1025,1 hPa 0,0 l/m 9,7 km/h (2 Bft) O-SO 112 0 min 0,000 mm 0,0 UV-I 109 W/m 8,8 C 10,5 C 12,9 km/h (3 Bft) 100,00 %
13.07.2020 07:02 10,4 C 89 % 1025,1 hPa 0,0 l/m 8,0 km/h (2 Bft) O-SO 112 0 min 0,000 mm 0,0 UV-I 79 W/m 8,7 C 10,4 C 12,9 km/h (3 Bft) 100,00 %
13.07.2020 07:01 10,4 C 89 % 1025,1 hPa 0,0 l/m 11,3 km/h (2 Bft) O-SO 112 0 min 0,000 mm 0,0 UV-I 90 W/m 8,7 C 10,4 C 14,5 km/h (3 Bft) 100,00 %
13.07.2020 07:00 10,4 C 89 % 1025,0 hPa 0,0 l/m 9,7 km/h (2 Bft) O-SO 112 0 min 0,025 mm 0,0 UV-I 107 W/m 8,7 C 10,4 C 14,5 km/h (3 Bft) 100,00 %
13.07.2020 06:59 10,4 C 89 % 1025,0 hPa 0,0 l/m 9,7 km/h (2 Bft) SO 135 0 min 0,000 mm 0,0 UV-I 116 W/m 8,7 C 10,4 C 11,3 km/h (2 Bft) 100,00 %
13.07.2020 06:58 10,3 C 89 % 1025,0 hPa 0,0 l/m 11,3 km/h (2 Bft) O-SO 112 0 min 0,000 mm 0,0 UV-I 118 W/m 8,6 C 10,3 C 16,1 km/h (3 Bft) 95,65 %
13.07.2020 06:57 10,3 C 89 % 1025,0 hPa 0,0 l/m 9,7 km/h (2 Bft) O-SO 112 0 min 0,000 mm 0,0 UV-I 121 W/m 8,6 C 10,3 C 14,5 km/h (3 Bft) 100,00 %
13.07.2020 06:56 10,3 C 89 % 1025,0 hPa 0,0 l/m 12,9 km/h (3 Bft) SO 135 0 min 0,000 mm 0,0 UV-I 49 W/m 8,6 C 10,3 C 17,7 km/h (3 Bft) 95,65 %
13.07.2020 06:55 10,3 C 89 % 1025,0 hPa 0,0 l/m 12,9 km/h (3 Bft) O-SO 112 0 min 0,000 mm 0,0 UV-I 28 W/m 8,6 C 10,3 C 16,1 km/h (3 Bft) 100,00 %
13.07.2020 06:54 10,2 C 89 % 1024,9 hPa 0,0 l/m 9,7 km/h (2 Bft) O-SO 112 0 min 0,000 mm 0,0 UV-I 28 W/m 8,5 C 10,2 C 12,9 km/h (3 Bft) 95,65 %
13.07.2020 06:53 10,2 C 89 % 1024,9 hPa 0,0 l/m 12,9 km/h (3 Bft) O-SO 112 0 min 0,000 mm 0,0 UV-I 25 W/m 8,5 C 10,2 C 16,1 km/h (3 Bft) 100,00 %
13.07.2020 06:52 10,2 C 90 % 1024,9 hPa 0,0 l/m 11,3 km/h (2 Bft) O-SO 112 0 min 0,000 mm 0,0 UV-I 26 W/m 8,6 C 10,2 C 14,5 km/h (3 Bft) 100,00 %
13.07.2020 06:51 10,1 C 90 % 1024,9 hPa 0,0 l/m 9,7 km/h (2 Bft) O-SO 112 0 min 0,000 mm 0,0 UV-I 28 W/m 8,5 C 10,1 C 12,9 km/h (3 Bft) 100,00 %
13.07.2020 06:50 10,1 C 90 % 1024,9 hPa 0,0 l/m 12,9 km/h (3 Bft) O-SO 112 0 min 0,000 mm 0,0 UV-I 30 W/m 8,5 C 10,1 C 16,1 km/h (3 Bft) 100,00 %
13.07.2020 06:49 10,1 C 90 % 1024,9 hPa 0,0 l/m 8,0 km/h (2 Bft) SO 135 0 min 0,000 mm 0,0 UV-I 37 W/m 8,5 C 10,1 C 11,3 km/h (2 Bft) 100,00 %
13.07.2020 06:48 10,0 C 90 % 1024,9 hPa 0,0 l/m 12,9 km/h (3 Bft) SO 135 0 min 0,000 mm 0,0 UV-I 42 W/m 8,4 C 8,2 C 16,1 km/h (3 Bft) 100,00 %
13.07.2020 06:47 9,9 C 90 % 1025,0 hPa 0,0 l/m 11,3 km/h (2 Bft) O-SO 112 0 min 0,000 mm 0,0 UV-I 40 W/m 8,3 C 8,3 C 12,9 km/h (3 Bft) 100,00 %
13.07.2020 06:46 9,9 C 90 % 1025,0 hPa 0,0 l/m 11,3 km/h (2 Bft) O-SO 112 0 min 0,000 mm 0,0 UV-I 30 W/m 8,3 C 8,3 C 12,9 km/h (3 Bft) 100,00 %
13.07.2020 06:45 9,9 C 90 % 1025,0 hPa 0,0 l/m 9,7 km/h (2 Bft) O-SO 112 0 min 0,000 mm 0,0 UV-I 25 W/m 8,3 C 8,6 C 12,9 km/h (3 Bft) 100,00 %
13.07.2020 06:44 9,8 C 90 % 1024,9 hPa 0,0 l/m 8,0 km/h (2 Bft) SO 135 0 min 0,000 mm 0,0 UV-I 25 W/m 8,2 C 8,8 C 9,7 km/h (2 Bft) 100,00 %
13.07.2020 06:43 9,8 C 90 % 1025,0 hPa 0,0 l/m 8,0 km/h (2 Bft) SO 135 0 min 0,000 mm 0,0 UV-I 28 W/m 8,2 C 8,8 C 11,3 km/h (2 Bft) 100,00 %
13.07.2020 06:42 9,8 C 90 % 1025,0 hPa 0,0 l/m 11,3 km/h (2 Bft) O-SO 112 0 min 0,000 mm 0,0 UV-I 28 W/m 8,2 C 8,2 C 14,5 km/h (3 Bft) 100,00 %
13.07.2020 06:41 9,8 C 90 % 1025,0 hPa 0,0 l/m 11,3 km/h (2 Bft) O-SO 112 0 min 0,000 mm 0,0 UV-I 25 W/m 8,2 C 8,2 C 14,5 km/h (3 Bft) 100,00 %
13.07.2020 06:40 9,7 C 90 % 1025,0 hPa 0,0 l/m 9,7 km/h (2 Bft) SO 135 0 min 0,000 mm 0,0 UV-I 26 W/m 8,1 C 8,3 C 12,9 km/h (3 Bft) 100,00 %
13.07.2020 06:39 9,7 C 90 % 1025,0 hPa 0,0 l/m 11,3 km/h (2 Bft) O-SO 112 0 min 0,000 mm 0,0 UV-I 26 W/m 8,1 C 8,1 C 12,9 km/h (3 Bft) 95,65 %
13.07.2020 06:38 9,7 C 90 % 1025,0 hPa 0,0 l/m 11,3 km/h (2 Bft) O-SO 112 0 min 0,000 mm 0,0 UV-I 23 W/m 8,1 C 8,1 C 14,5 km/h (3 Bft) 91,30 %
13.07.2020 06:37 9,6 C 90 % 1025,0 hPa 0,0 l/m 12,9 km/h (3 Bft) O-SO 112 0 min 0,000 mm 0,0 UV-I 23 W/m 8,0 C 7,7 C 16,1 km/h (3 Bft) 95,65 %
13.07.2020 06:36 9,6 C 91 % 1025,0 hPa 0,0 l/m 12,9 km/h (3 Bft) O-SO 112 0 min 0,000 mm 0,0 UV-I 23 W/m 8,2 C 7,7 C 14,5 km/h (3 Bft) 100,00 %
13.07.2020 06:35 9,6 C 91 % 1025,1 hPa 0,0 l/m 12,9 km/h (3 Bft) O-SO 112 0 min 0,000 mm 0,0 UV-I 23 W/m 8,2 C 7,7 C 16,1 km/h (3 Bft) 100,00 %
13.07.2020 06:34 9,5 C 91 % 1025,0 hPa 0,0 l/m 12,9 km/h (3 Bft) O-SO 112 0 min 0,000 mm 0,0 UV-I 23 W/m 8,1 C 7,6 C 14,5 km/h (3 Bft) 91,30 %
13.07.2020 06:33 9,5 C 91 % 1025,0 hPa 0,0 l/m 9,7 km/h (2 Bft) O-SO 112 0 min 0,000 mm 0,0 UV-I 21 W/m 8,1 C 8,1 C 14,5 km/h (3 Bft) 95,65 %
13.07.2020 06:32 9,5 C 91 % 1025,0 hPa 0,0 l/m 11,3 km/h (2 Bft) O-SO 112 0 min 0,000 mm 0,0 UV-I 21 W/m 8,1 C 7,8 C 12,9 km/h (3 Bft) 100,00 %
13.07.2020 06:31 9,4 C 91 % 1025,1 hPa 0,0 l/m 11,3 km/h (2 Bft) O-SO 112 0 min 0,000 mm 0,0 UV-I 19 W/m 8,0 C 7,7 C 12,9 km/h (3 Bft) 95,65 %
13.07.2020 06:30 9,4 C 91 % 1025,0 hPa 0,0 l/m 9,7 km/h (2 Bft) O-SO 112 0 min 0,000 mm 0,0 UV-I 19 W/m 8,0 C 8,0 C 12,9 km/h (3 Bft) 100,00 %
13.07.2020 06:29 9,4 C 90 % 1025,0 hPa 0,0 l/m 9,7 km/h (2 Bft) O-SO 112 0 min 0,000 mm 0,0 UV-I 19 W/m 7,8 C 8,0 C 12,9 km/h (3 Bft) 95,65 %
13.07.2020 06:28 9,4 C 90 % 1025,1 hPa 0,0 l/m 11,3 km/h (2 Bft) O-SO 112 0 min 0,000 mm 0,0 UV-I 19 W/m 7,8 C 7,7 C 12,9 km/h (3 Bft) 100,00 %
13.07.2020 06:27 9,4 C 90 % 1025,1 hPa 0,0 l/m 9,7 km/h (2 Bft) O-SO 112 0 min 0,000 mm 0,0 UV-I 19 W/m 7,8 C 8,0 C 14,5 km/h (3 Bft) 91,30 %
13.07.2020 06:26 9,4 C 90 % 1025,0 hPa 0,0 l/m 8,0 km/h (2 Bft) O-SO 112 0 min 0,000 mm 0,0 UV-I 19 W/m 7,8 C 8,3 C 11,3 km/h (2 Bft) 95,65 %
13.07.2020 06:25 9,4 C 90 % 1025,1 hPa 0,0 l/m 9,7 km/h (2 Bft) O-SO 112 0 min 0,000 mm 0,0 UV-I 19 W/m 7,8 C 8,0 C 12,9 km/h (3 Bft) 91,30 %
13.07.2020 06:24 9,4 C 91 % 1025,1 hPa 0,0 l/m 11,3 km/h (2 Bft) O-SO 112 0 min 0,000 mm 0,0 UV-I 19 W/m 8,0 C 7,7 C 12,9 km/h (3 Bft) 100,00 %
13.07.2020 06:23 9,4 C 91 % 1025,0 hPa 0,0 l/m 11,3 km/h (2 Bft) SO 135 0 min 0,000 mm 0,0 UV-I 19 W/m 8,0 C 7,7 C 16,1 km/h (3 Bft) 100,00 %
13.07.2020 06:22 9,3 C 91 % 1025,1 hPa 0,0 l/m 11,3 km/h (2 Bft) SO 135 0 min 0,000 mm 0,0 UV-I 19 W/m 7,9 C 7,6 C 12,9 km/h (3 Bft) 95,65 %
13.07.2020 06:21 9,3 C 91 % 1025,1 hPa 0,0 l/m 9,7 km/h (2 Bft) O-SO 112 0 min 0,000 mm 0,0 UV-I 18 W/m 7,9 C 7,8 C 12,9 km/h (3 Bft) 100,00 %
13.07.2020 06:20 9,3 C 91 % 1025,0 hPa 0,0 l/m 11,3 km/h (2 Bft) O-SO 112 0 min 0,000 mm 0,0 UV-I 18 W/m 7,9 C 7,6 C 12,9 km/h (3 Bft) 95,65 %
13.07.2020 06:19 9,3 C 91 % 1025,0 hPa 0,0 l/m 11,3 km/h (2 Bft) O-SO 112 0 min 0,000 mm 0,0 UV-I 16 W/m 7,9 C 7,6 C 14,5 km/h (3 Bft) 100,00 %
13.07.2020 06:18 9,3 C 91 % 1025,1 hPa 0,0 l/m 9,7 km/h (2 Bft) SO 135 0 min 0,000 mm 0,0 UV-I 16 W/m 7,9 C 7,8 C 12,9 km/h (3 Bft) 100,00 %
13.07.2020 06:17 9,3 C 91 % 1025,1 hPa 0,0 l/m 11,3 km/h (2 Bft) O-SO 112 0 min 0,000 mm 0,0 UV-I 16 W/m 7,9 C 7,6 C 14,5 km/h (3 Bft) 95,65 %
13.07.2020 06:16 9,2 C 91 % 1025,1 hPa 0,0 l/m 12,9 km/h (3 Bft) O-SO 112 0 min 0,000 mm 0,0 UV-I 16 W/m 7,8 C 7,2 C 14,5 km/h (3 Bft) 100,00 %
13.07.2020 06:15 9,2 C 91 % 1025,1 hPa 0,0 l/m 11,3 km/h (2 Bft) O-SO 112 0 min 0,000 mm 0,0 UV-I 16 W/m 7,8 C 7,5 C 12,9 km/h (3 Bft) 100,00 %
13.07.2020 06:14 9,2 C 91 % 1025,2 hPa 0,0 l/m 11,3 km/h (2 Bft) O-SO 112 0 min 0,000 mm 0,0 UV-I 16 W/m 7,8 C 7,5 C 12,9 km/h (3 Bft) 100,00 %
13.07.2020 06:13 9,2 C 91 % 1025,1 hPa 0,0 l/m 11,3 km/h (2 Bft) O-SO 112 0 min 0,000 mm 0,0 UV-I 16 W/m 7,8 C 7,5 C 14,5 km/h (3 Bft) 95,65 %
13.07.2020 06:12 9,2 C 90 % 1025,2 hPa 0,0 l/m 11,3 km/h (2 Bft) O-SO 112 0 min 0,000 mm 0,0 UV-I 16 W/m 7,6 C 7,5 C 14,5 km/h (3 Bft) 95,65 %
13.07.2020 06:11 9,2 C 90 % 1025,1 hPa 0,0 l/m 9,7 km/h (2 Bft) O-SO 112 0 min 0,000 mm 0,0 UV-I 16 W/m 7,6 C 7,7 C 12,9 km/h (3 Bft) 100,00 %
13.07.2020 06:10 9,2 C 90 % 1025,1 hPa 0,0 l/m 12,9 km/h (3 Bft) O-SO 112 0 min 0,000 mm 0,0 UV-I 16 W/m 7,6 C 7,2 C 14,5 km/h (3 Bft) 100,00 %
13.07.2020 06:09 9,2 C 90 % 1025,2 hPa 0,0 l/m 11,3 km/h (2 Bft) O-SO 112 0 min 0,000 mm 0,0 UV-I 16 W/m 7,6 C 7,5 C 14,5 km/h (3 Bft) 100,00 %
13.07.2020 06:08 9,2 C 90 % 1025,1 hPa 0,0 l/m 11,3 km/h (2 Bft) O-SO 112 0 min 0,000 mm 0,0 UV-I 16 W/m 7,6 C 7,5 C 16,1 km/h (3 Bft) 100,00 %
13.07.2020 06:07 9,2 C 90 % 1025,1 hPa 0,0 l/m 11,3 km/h (2 Bft) O-SO 112 0 min 0,000 mm 0,0 UV-I 16 W/m 7,6 C 7,5 C 12,9 km/h (3 Bft) 100,00 %
13.07.2020 06:06 9,2 C 90 % 1025,2 hPa 0,0 l/m 11,3 km/h (2 Bft) O-SO 112 0 min 0,000 mm 0,0 UV-I 16 W/m 7,6 C 7,5 C 14,5 km/h (3 Bft) 95,65 %
13.07.2020 06:05 9,2 C 90 % 1025,2 hPa 0,0 l/m 11,3 km/h (2 Bft) O-SO 112 0 min 0,000 mm 0,0 UV-I 14 W/m 7,6 C 7,5 C 12,9 km/h (3 Bft) 100,00 %
13.07.2020 06:04 9,2 C 90 % 1025,1 hPa 0,0 l/m 9,7 km/h (2 Bft) O-SO 112 0 min 0,000 mm 0,0 UV-I 14 W/m 7,6 C 7,7 C 12,9 km/h (3 Bft) 100,00 %
13.07.2020 06:03 9,2 C 90 % 1025,1 hPa 0,0 l/m 12,9 km/h (3 Bft) O-SO 112 0 min 0,000 mm 0,0 UV-I 14 W/m 7,6 C 7,2 C 14,5 km/h (3 Bft) 95,65 %
13.07.2020 06:02 9,1 C 90 % 1025,0 hPa 0,0 l/m 11,3 km/h (2 Bft) O-SO 112 0 min 0,000 mm 0,0 UV-I 14 W/m 7,5 C 7,3 C 12,9 km/h (3 Bft) 100,00 %
13.07.2020 06:01 9,2 C 90 % 1025,0 hPa 0,0 l/m 11,3 km/h (2 Bft) O-SO 112 0 min 0,000 mm 0,0 UV-I 14 W/m 7,6 C 7,5 C 14,5 km/h (3 Bft) 100,00 %
13.07.2020 06:00 9,2 C 90 % 1025,1 hPa 0,0 l/m 9,7 km/h (2 Bft) O-SO 112 0 min 0,025 mm 0,0 UV-I 14 W/m 7,6 C 7,7 C 12,9 km/h (3 Bft) 100,00 %
13.07.2020 05:59 9,2 C 90 % 1025,1 hPa 0,0 l/m 11,3 km/h (2 Bft) O-SO 112 0 min 0,000 mm 0,0 UV-I 14 W/m 7,6 C 7,5 C 14,5 km/h (3 Bft) 100,00 %
13.07.2020 05:58 9,2 C 90 % 1025,1 hPa 0,0 l/m 11,3 km/h (2 Bft) O-SO 112 0 min 0,000 mm 0,0 UV-I 12 W/m 7,6 C 7,5 C 14,5 km/h (3 Bft) 91,30 %
13.07.2020 05:57 9,2 C 89 % 1025,1 hPa 0,0 l/m 11,3 km/h (2 Bft) O-SO 112 0 min 0,000 mm 0,0 UV-I 12 W/m 7,5 C 7,5 C 14,5 km/h (3 Bft) 100,00 %
13.07.2020 05:56 9,2 C 89 % 1025,1 hPa 0,0 l/m 9,7 km/h (2 Bft) O-SO 112 0 min 0,000 mm 0,0 UV-I 12 W/m 7,5 C 7,7 C 11,3 km/h (2 Bft) 95,65 %
13.07.2020 05:55 9,2 C 89 % 1025,1 hPa 0,0 l/m 11,3 km/h (2 Bft) O-SO 112 0 min 0,000 mm 0,0 UV-I 12 W/m 7,5 C 7,5 C 14,5 km/h (3 Bft) 100,00 %
13.07.2020 05:54 9,2 C 89 % 1025,1 hPa 0,0 l/m 9,7 km/h (2 Bft) O-SO 112 0 min 0,000 mm 0,0 UV-I 12 W/m 7,5 C 7,7 C 11,3 km/h (2 Bft) 100,00 %
13.07.2020 05:53 9,3 C 89 % 1025,2 hPa 0,0 l/m 9,7 km/h (2 Bft) O-SO 112 0 min 0,000 mm 0,0 UV-I 12 W/m 7,6 C 7,8 C 11,3 km/h (2 Bft) 100,00 %
13.07.2020 05:52 9,2 C 89 % 1025,2 hPa 0,0 l/m 9,7 km/h (2 Bft) O-SO 112 0 min 0,000 mm 0,0 UV-I 12 W/m 7,5 C 7,7 C 11,3 km/h (2 Bft) 100,00 %
13.07.2020 05:51 9,2 C 89 % 1025,1 hPa 0,0 l/m 8,0 km/h (2 Bft) O-SO 112 0 min 0,000 mm 0,0 UV-I 12 W/m 7,5 C 8,1 C 8,0 km/h (2 Bft) 100,00 %
13.07.2020 05:50 9,2 C 89 % 1025,2 hPa 0,0 l/m 8,0 km/h (2 Bft) O-SO 112 0 min 0,000 mm 0,0 UV-I 11 W/m 7,5 C 8,1 C 8,0 km/h (2 Bft) 100,00 %
13.07.2020 05:49 9,3 C 89 % 1025,2 hPa 0,0 l/m 8,0 km/h (2 Bft) O-SO 112 0 min 0,000 mm 0,0 UV-I 11 W/m 7,6 C 8,2 C 11,3 km/h (2 Bft) 100,00 %
13.07.2020 05:48 9,3 C 89 % 1025,2 hPa 0,0 l/m 6,4 km/h (2 Bft) O-SO 112 0 min 0,000 mm 0,0 UV-I 11 W/m 7,6 C 8,6 C 8,0 km/h (2 Bft) 100,00 %
13.07.2020 05:47 9,3 C 89 % 1025,2 hPa 0,0 l/m 8,0 km/h (2 Bft) O-SO 112 0 min 0,000 mm 0,0 UV-I 11 W/m 7,6 C 8,2 C 11,3 km/h (2 Bft) 100,00 %
13.07.2020 05:46 9,3 C 89 % 1025,1 hPa 0,0 l/m 8,0 km/h (2 Bft) O-SO 112 0 min 0,000 mm 0,0 UV-I 11 W/m 7,6 C 8,2 C 11,3 km/h (2 Bft) 82,61 %
13.07.2020 05:45 9,3 C 89 % 1025,2 hPa 0,0 l/m 8,0 km/h (2 Bft) O-SO 112 0 min 0,000 mm 0,0 UV-I 11 W/m 7,6 C 8,2 C 11,3 km/h (2 Bft) 100,00 %
13.07.2020 05:44 9,3 C 89 % 1025,1 hPa 0,0 l/m 8,0 km/h (2 Bft) O-SO 112 0 min 0,000 mm 0,0 UV-I 9 W/m 7,6 C 8,2 C 11,3 km/h (2 Bft) 100,00 %
13.07.2020 05:43 9,3 C 89 % 1025,2 hPa 0,0 l/m 8,0 km/h (2 Bft) SO 135 0 min 0,000 mm 0,0 UV-I 9 W/m 7,6 C 8,2 C 11,3 km/h (2 Bft) 100,00 %
13.07.2020 05:42 9,3 C 89 % 1025,1 hPa 0,0 l/m 8,0 km/h (2 Bft) SO 135 0 min 0,000 mm 0,0 UV-I 9 W/m 7,6 C 8,2 C 12,9 km/h (3 Bft) 100,00 %
13.07.2020 05:41 9,3 C 89 % 1025,1 hPa 0,0 l/m 9,7 km/h (2 Bft) O-SO 112 0 min 0,000 mm 0,0 UV-I 9 W/m 7,6 C 7,8 C 12,9 km/h (3 Bft) 95,65 %
13.07.2020 05:40 9,3 C 89 % 1025,1 hPa 0,0 l/m 9,7 km/h (2 Bft) SO 135 0 min 0,000 mm 0,0 UV-I 9 W/m 7,6 C 7,8 C 11,3 km/h (2 Bft) 100,00 %
13.07.2020 05:39 9,3 C 89 % 1025,1 hPa 0,0 l/m 8,0 km/h (2 Bft) O-SO 112 0 min 0,000 mm 0,0 UV-I 7 W/m 7,6 C 8,2 C 8,0 km/h (2 Bft) 100,00 %
13.07.2020 05:38 9,3 C 89 % 1025,1 hPa 0,0 l/m 8,0 km/h (2 Bft) O-SO 112 0 min 0,000 mm 0,0 UV-I 7 W/m 7,6 C 8,2 C 11,3 km/h (2 Bft) 100,00 %
13.07.2020 05:37 9,3 C 89 % 1025,1 hPa 0,0 l/m 8,0 km/h (2 Bft) O-SO 112 0 min 0,000 mm 0,0 UV-I 7 W/m 7,6 C 8,2 C 11,3 km/h (2 Bft) 95,65 %
13.07.2020 05:36 9,3 C 89 % 1025,1 hPa 0,0 l/m 8,0 km/h (2 Bft) O-SO 112 0 min 0,000 mm 0,0 UV-I 7 W/m 7,6 C 8,2 C 11,3 km/h (2 Bft) 95,65 %
13.07.2020 05:35 9,3 C 89 % 1025,1 hPa 0,0 l/m 9,7 km/h (2 Bft) SO 135 0 min 0,000 mm 0,0 UV-I 7 W/m 7,6 C 7,8 C 12,9 km/h (3 Bft) 95,65 %
13.07.2020 05:34 9,3 C 89 % 1025,1 hPa 0,0 l/m 8,0 km/h (2 Bft) O-SO 112 0 min 0,000 mm 0,0 UV-I 7 W/m 7,6 C 8,2 C 11,3 km/h (2 Bft) 95,65 %
13.07.2020 05:33 9,3 C 89 % 1025,1 hPa 0,0 l/m 9,7 km/h (2 Bft) O-SO 112 0 min 0,000 mm 0,0 UV-I 7 W/m 7,6 C 7,8 C 11,3 km/h (2 Bft) 95,65 %
13.07.2020 05:32 9,3 C 88 % 1025,1 hPa 0,0 l/m 11,3 km/h (2 Bft) O-SO 112 0 min 0,000 mm 0,0 UV-I 7 W/m 7,4 C 7,6 C 11,3 km/h (2 Bft) 95,65 %
13.07.2020 05:31 9,3 C 88 % 1025,1 hPa 0,0 l/m 8,0 km/h (2 Bft) SO 135 0 min 0,000 mm 0,0 UV-I 7 W/m 7,4 C 8,2 C 11,3 km/h (2 Bft) 95,65 %
13.07.2020 05:30 9,3 C 88 % 1025,1 hPa 0,0 l/m 8,0 km/h (2 Bft) SO 135 0 min 0,000 mm 0,0 UV-I 7 W/m 7,4 C 8,2 C 11,3 km/h (2 Bft) 100,00 %
13.07.2020 05:29 9,3 C 88 % 1025,1 hPa 0,0 l/m 6,4 km/h (2 Bft) SO 135 0 min 0,000 mm 0,0 UV-I 5 W/m 7,4 C 8,6 C 11,3 km/h (2 Bft) 100,00 %
13.07.2020 05:28 9,3 C 88 % 1025,0 hPa 0,0 l/m 9,7 km/h (2 Bft) SO 135 0 min 0,000 mm 0,0 UV-I 5 W/m 7,4 C 7,8 C 12,9 km/h (3 Bft) 100,00 %
13.07.2020 05:27 9,3 C 88 % 1025,0 hPa 0,0 l/m 9,7 km/h (2 Bft) O-SO 112 0 min 0,000 mm 0,0 UV-I 5 W/m 7,4 C 7,8 C 12,9 km/h (3 Bft) 95,65 %
13.07.2020 05:26 9,3 C 88 % 1025,1 hPa 0,0 l/m 9,7 km/h (2 Bft) O-SO 112 0 min 0,000 mm 0,0 UV-I 5 W/m 7,4 C 7,8 C 14,5 km/h (3 Bft) 95,65 %
13.07.2020 05:25 9,3 C 88 % 1025,0 hPa 0,0 l/m 8,0 km/h (2 Bft) O-SO 112 0 min 0,000 mm 0,0 UV-I 5 W/m 7,4 C 8,2 C 11,3 km/h (2 Bft) 95,65 %
13.07.2020 05:24 9,4 C 88 % 1025,0 hPa 0,0 l/m 8,0 km/h (2 Bft) O-SO 112 0 min 0,000 mm 0,0 UV-I 5 W/m 7,5 C 8,3 C 11,3 km/h (2 Bft) 100,00 %
13.07.2020 05:23 9,4 C 88 % 1025,0 hPa 0,0 l/m 8,0 km/h (2 Bft) O-SO 112 0 min 0,000 mm 0,0 UV-I 5 W/m 7,5 C 8,3 C 9,7 km/h (2 Bft) 100,00 %
13.07.2020 05:22 9,4 C 88 % 1025,0 hPa 0,0 l/m 8,0 km/h (2 Bft) O-SO 112 0 min 0,000 mm 0,0 UV-I 0 W/m 7,5 C 8,3 C 11,3 km/h (2 Bft) 100,00 %
13.07.2020 05:21 9,4 C 88 % 1025,0 hPa 0,0 l/m 8,0 km/h (2 Bft) O-SO 112 0 min 0,000 mm 0,0 UV-I 0 W/m 7,5 C 8,3 C 11,3 km/h (2 Bft) 100,00 %
13.07.2020 05:20 9,4 C 88 % 1025,1 hPa 0,0 l/m 8,0 km/h (2 Bft) O-SO 112 0 min 0,000 mm 0,0 UV-I 0 W/m 7,5 C 8,3 C 8,0 km/h (2 Bft) 95,65 %
13.07.2020 05:19 9,5 C 88 % 1025,0 hPa 0,0 l/m 9,7 km/h (2 Bft) O-SO 112 0 min 0,000 mm 0,0 UV-I 0 W/m 7,6 C 8,1 C 12,9 km/h (3 Bft) 100,00 %
13.07.2020 05:18 9,5 C 88 % 1025,1 hPa 0,0 l/m 6,4 km/h (2 Bft) O-SO 112 0 min 0,000 mm 0,0 UV-I 0 W/m 7,6 C 8,8 C 11,3 km/h (2 Bft) 95,65 %
13.07.2020 05:17 9,5 C 88 % 1025,1 hPa 0,0 l/m 8,0 km/h (2 Bft) SO 135 0 min 0,000 mm 0,0 UV-I 0 W/m 7,6 C 8,4 C 11,3 km/h (2 Bft) 100,00 %
13.07.2020 05:16 9,5 C 88 % 1025,1 hPa 0,0 l/m 8,0 km/h (2 Bft) O-SO 112 0 min 0,000 mm 0,0 UV-I 0 W/m 7,6 C 8,4 C 11,3 km/h (2 Bft) 100,00 %
13.07.2020 05:15 9,6 C 88 % 1025,0 hPa 0,0 l/m 8,0 km/h (2 Bft) O-SO 112 0 min 0,000 mm 0,0 UV-I 0 W/m 7,7 C 8,5 C 11,3 km/h (2 Bft) 100,00 %
13.07.2020 05:14 9,6 C 87 % 1025,1 hPa 0,0 l/m 8,0 km/h (2 Bft) O-SO 112 0 min 0,000 mm 0,0 UV-I 0 W/m 7,5 C 8,5 C 8,0 km/h (2 Bft) 100,00 %
13.07.2020 05:13 9,6 C 88 % 1025,1 hPa 0,0 l/m 9,7 km/h (2 Bft) O-SO 112 0 min 0,000 mm 0,0 UV-I 0 W/m 7,7 C 8,2 C 11,3 km/h (2 Bft) 95,65 %
13.07.2020 05:12 9,6 C 88 % 1025,1 hPa 0,0 l/m 9,7 km/h (2 Bft) O-SO 112 0 min 0,000 mm 0,0 UV-I 0 W/m 7,7 C 8,2 C 12,9 km/h (3 Bft) 100,00 %
13.07.2020 05:11 9,6 C 88 % 1025,0 hPa 0,0 l/m 9,7 km/h (2 Bft) O-SO 112 0 min 0,000 mm 0,0 UV-I 0 W/m 7,7 C 8,2 C 12,9 km/h (3 Bft) 100,00 %
13.07.2020 05:10 9,6 C 87 % 1025,0 hPa 0,0 l/m 9,7 km/h (2 Bft) O-SO 112 0 min 0,000 mm 0,0 UV-I 0 W/m 7,5 C 8,2 C 11,3 km/h (2 Bft) 95,65 %
13.07.2020 05:09 9,6 C 87 % 1025,1 hPa 0,0 l/m 9,7 km/h (2 Bft) O-SO 112 0 min 0,000 mm 0,0 UV-I 0 W/m 7,5 C 8,2 C 12,9 km/h (3 Bft) 100,00 %
13.07.2020 05:08 9,6 C 87 % 1025,1 hPa 0,0 l/m 8,0 km/h (2 Bft) O-SO 112 0 min 0,000 mm 0,0 UV-I 0 W/m 7,5 C 8,5 C 11,3 km/h (2 Bft) 100,00 %
13.07.2020 05:07 9,6 C 87 % 1025,1 hPa 0,0 l/m 9,7 km/h (2 Bft) O-SO 112 0 min 0,000 mm 0,0 UV-I 0 W/m 7,5 C 8,2 C 11,3 km/h (2 Bft) 100,00 %
13.07.2020 05:06 9,6 C 87 % 1025,1 hPa 0,0 l/m 9,7 km/h (2 Bft) O-SO 112 0 min 0,000 mm 0,0 UV-I 0 W/m 7,5 C 8,2 C 14,5 km/h (3 Bft) 100,00 %
13.07.2020 05:05 9,7 C 87 % 1025,0 hPa 0,0 l/m 9,7 km/h (2 Bft) SO 135 0 min 0,000 mm 0,0 UV-I 0 W/m 7,6 C 8,3 C 14,5 km/h (3 Bft) 95,65 %
13.07.2020 05:04 9,7 C 87 % 1025,1 hPa 0,0 l/m 9,7 km/h (2 Bft) O-SO 112 0 min 0,000 mm 0,0 UV-I 0 W/m 7,6 C 8,3 C 11,3 km/h (2 Bft) 100,00 %
13.07.2020 05:03 9,7 C 87 % 1025,0 hPa 0,0 l/m 8,0 km/h (2 Bft) O-SO 112 0 min 0,000 mm 0,0 UV-I 0 W/m 7,6 C 8,7 C 12,9 km/h (3 Bft) 95,65 %
13.07.2020 05:02 9,7 C 87 % 1025,1 hPa 0,0 l/m 8,0 km/h (2 Bft) SO 135 0 min 0,000 mm 0,0 UV-I 0 W/m 7,6 C 8,7 C 12,9 km/h (3 Bft) 100,00 %
13.07.2020 05:01 9,7 C 87 % 1025,1 hPa 0,0 l/m 9,7 km/h (2 Bft) SO 135 0 min 0,000 mm 0,0 UV-I 0 W/m 7,6 C 8,3 C 17,7 km/h (3 Bft) 100,00 %
13.07.2020 05:00 9,7 C 87 % 1025,0 hPa 0,0 l/m 11,3 km/h (2 Bft) O-SO 112 0 min 0,025 mm 0,0 UV-I 0 W/m 7,6 C 8,1 C 14,5 km/h (3 Bft) 95,65 %
13.07.2020 04:59 9,7 C 87 % 1025,1 hPa 0,0 l/m 9,7 km/h (2 Bft) O-SO 112 0 min 0,000 mm 0,0 UV-I 0 W/m 7,6 C 8,3 C 17,7 km/h (3 Bft) 100,00 %
13.07.2020 04:58 9,7 C 87 % 1025,1 hPa 0,0 l/m 11,3 km/h (2 Bft) O-SO 112 0 min 0,000 mm 0,0 UV-I 0 W/m 7,6 C 8,1 C 14,5 km/h (3 Bft) 95,65 %
13.07.2020 04:57 9,7 C 87 % 1025,1 hPa 0,0 l/m 8,0 km/h (2 Bft) O-SO 112 0 min 0,000 mm 0,0 UV-I 0 W/m 7,6 C 8,7 C 11,3 km/h (2 Bft) 100,00 %
13.07.2020 04:56 9,7 C 87 % 1025,1 hPa 0,0 l/m 9,7 km/h (2 Bft) O-SO 112 0 min 0,000 mm 0,0 UV-I 0 W/m 7,6 C 8,3 C 12,9 km/h (3 Bft) 95,65 %
13.07.2020 04:55 9,7 C 87 % 1025,1 hPa 0,0 l/m 9,7 km/h (2 Bft) O-SO 112 0 min 0,000 mm 0,0 UV-I 0 W/m 7,6 C 8,3 C 12,9 km/h (3 Bft) 100,00 %
13.07.2020 04:54 9,7 C 87 % 1025,1 hPa 0,0 l/m 9,7 km/h (2 Bft) O-SO 112 0 min 0,000 mm 0,0 UV-I 0 W/m 7,6 C 8,3 C 14,5 km/h (3 Bft) 95,65 %
13.07.2020 04:53 9,7 C 87 % 1025,2 hPa 0,0 l/m 9,7 km/h (2 Bft) O-SO 112 0 min 0,000 mm 0,0 UV-I 0 W/m 7,6 C 8,3 C 14,5 km/h (3 Bft) 100,00 %
13.07.2020 04:52 9,7 C 87 % 1025,2 hPa 0,0 l/m 8,0 km/h (2 Bft) O-SO 112 0 min 0,000 mm 0,0 UV-I 0 W/m 7,6 C 8,7 C 14,5 km/h (3 Bft) 95,65 %
13.07.2020 04:51 9,7 C 87 % 1025,2 hPa 0,0 l/m 9,7 km/h (2 Bft) O-SO 112 0 min 0,000 mm 0,0 UV-I 0 W/m 7,6 C 8,3 C 11,3 km/h (2 Bft) 91,30 %
13.07.2020 04:50 9,7 C 87 % 1025,2 hPa 0,0 l/m 9,7 km/h (2 Bft) O-SO 112 0 min 0,000 mm 0,0 UV-I 0 W/m 7,6 C 8,3 C 12,9 km/h (3 Bft) 100,00 %
13.07.2020 04:49 9,7 C 87 % 1025,2 hPa 0,0 l/m 11,3 km/h (2 Bft) O-SO 112 0 min 0,000 mm 0,0 UV-I 0 W/m 7,6 C 8,1 C 16,1 km/h (3 Bft) 100,00 %
13.07.2020 04:48 9,7 C 87 % 1025,2 hPa 0,0 l/m 9,7 km/h (2 Bft) O-SO 112 0 min 0,000 mm 0,0 UV-I 0 W/m 7,6 C 8,3 C 11,3 km/h (2 Bft) 100,00 %
13.07.2020 04:47 9,7 C 87 % 1025,3 hPa 0,0 l/m 8,0 km/h (2 Bft) O-SO 112 0 min 0,000 mm 0,0 UV-I 0 W/m 7,6 C 8,7 C 11,3 km/h (2 Bft) 95,65 %
13.07.2020 04:46 9,7 C 87 % 1025,2 hPa 0,0 l/m 6,4 km/h (2 Bft) O-SO 112 0 min 0,000 mm 0,0 UV-I 0 W/m 7,6 C 9,0 C 8,0 km/h (2 Bft) 100,00 %
13.07.2020 04:45 9,7 C 87 % 1025,2 hPa 0,0 l/m 8,0 km/h (2 Bft) SO 135 0 min 0,000 mm 0,0 UV-I 0 W/m 7,6 C 8,7 C 12,9 km/h (3 Bft) 100,00 %
13.07.2020 04:44 9,7 C 87 % 1025,3 hPa 0,0 l/m 6,4 km/h (2 Bft) SO 135 0 min 0,000 mm 0,0 UV-I 0 W/m 7,6 C 9,0 C 8,0 km/h (2 Bft) 100,00 %
13.07.2020 04:43 9,7 C 87 % 1025,3 hPa 0,0 l/m 6,4 km/h (2 Bft) SO 135 0 min 0,000 mm 0,0 UV-I 0 W/m 7,6 C 9,0 C 9,7 km/h (2 Bft) 100,00 %
13.07.2020 04:42 9,7 C 87 % 1025,3 hPa 0,0 l/m 8,0 km/h (2 Bft) O-SO 112 0 min 0,000 mm 0,0 UV-I 0 W/m 7,6 C 8,7 C 11,3 km/h (2 Bft) 100,00 %
13.07.2020 04:41 9,7 C 87 % 1025,2 hPa 0,0 l/m 6,4 km/h (2 Bft) O-SO 112 0 min 0,000 mm 0,0 UV-I 0 W/m 7,6 C 9,0 C 8,0 km/h (2 Bft) 100,00 %
13.07.2020 04:40 9,7 C 87 % 1025,3 hPa 0,0 l/m 6,4 km/h (2 Bft) O-SO 112 0 min 0,000 mm 0,0 UV-I 0 W/m 7,6 C 9,0 C 11,3 km/h (2 Bft) 100,00 %
13.07.2020 04:39 9,7 C 87 % 1025,3 hPa 0,0 l/m 6,4 km/h (2 Bft) O-SO 112 0 min 0,000 mm 0,0 UV-I 0 W/m 7,6 C 9,0 C 9,7 km/h (2 Bft) 95,65 %
13.07.2020 04:38 9,7 C 87 % 1025,3 hPa 0,0 l/m 6,4 km/h (2 Bft) O-SO 112 0 min 0,000 mm 0,0 UV-I 0 W/m 7,6 C 9,0 C 9,7 km/h (2 Bft) 100,00 %
13.07.2020 04:37 9,8 C 87 % 1025,3 hPa 0,0 l/m 6,4 km/h (2 Bft) O-SO 112 0 min 0,000 mm 0,0 UV-I 0 W/m 7,7 C 9,1 C 9,7 km/h (2 Bft) 91,30 %
13.07.2020 04:36 9,8 C 87 % 1025,3 hPa 0,0 l/m 8,0 km/h (2 Bft) O-SO 112 0 min 0,000 mm 0,0 UV-I 0 W/m 7,7 C 8,8 C 9,7 km/h (2 Bft) 100,00 %
13.07.2020 04:35 9,8 C 88 % 1025,3 hPa 0,0 l/m 8,0 km/h (2 Bft) O-SO 112 0 min 0,000 mm 0,0 UV-I 0 W/m 7,9 C 8,8 C 9,7 km/h (2 Bft) 100,00 %
13.07.2020 04:34 9,8 C 87 % 1025,4 hPa 0,0 l/m 6,4 km/h (2 Bft) O-SO 112 0 min 0,000 mm 0,0 UV-I 0 W/m 7,7 C 9,1 C 9,7 km/h (2 Bft) 100,00 %
13.07.2020 04:33 9,8 C 88 % 1025,3 hPa 0,0 l/m 6,4 km/h (2 Bft) O-SO 112 0 min 0,000 mm 0,0 UV-I 0 W/m 7,9 C 9,1 C 9,7 km/h (2 Bft) 100,00 %
13.07.2020 04:32 9,8 C 88 % 1025,3 hPa 0,0 l/m 6,4 km/h (2 Bft) SO 135 0 min 0,000 mm 0,0 UV-I 0 W/m 7,9 C 9,1 C 11,3 km/h (2 Bft) 100,00 %
13.07.2020 04:31 9,8 C 87 % 1025,3 hPa 0,0 l/m 6,4 km/h (2 Bft) SO 135 0 min 0,000 mm 0,0 UV-I 0 W/m 7,7 C 9,1 C 6,4 km/h (2 Bft) 100,00 %
13.07.2020 04:30 9,8 C 87 % 1025,3 hPa 0,0 l/m 8,0 km/h (2 Bft) SO 135 0 min 0,000 mm 0,0 UV-I 0 W/m 7,7 C 8,8 C 11,3 km/h (2 Bft) 100,00 %
13.07.2020 04:29 9,8 C 87 % 1025,4 hPa 0,0 l/m 6,4 km/h (2 Bft) SO 135 0 min 0,000 mm 0,0 UV-I 0 W/m 7,7 C 9,1 C 8,0 km/h (2 Bft) 100,00 %
13.07.2020 04:28 9,8 C 87 % 1025,3 hPa 0,0 l/m 6,4 km/h (2 Bft) O-SO 112 0 min 0,000 mm 0,0 UV-I 0 W/m 7,7 C 9,1 C 8,0 km/h (2 Bft) 100,00 %
13.07.2020 04:27 9,8 C 87 % 1025,3 hPa 0,0 l/m 6,4 km/h (2 Bft) O-SO 112 0 min 0,000 mm 0,0 UV-I 0 W/m 7,7 C 9,1 C 8,0 km/h (2 Bft) 100,00 %
13.07.2020 04:26 9,8 C 87 % 1025,3 hPa 0,0 l/m 6,4 km/h (2 Bft) O-SO 112 0 min 0,000 mm 0,0 UV-I 0 W/m 7,7 C 9,1 C 8,0 km/h (2 Bft) 100,00 %
13.07.2020 04:25 9,8 C 87 % 1025,3 hPa 0,0 l/m 6,4 km/h (2 Bft) O-SO 112 0 min 0,000 mm 0,0 UV-I 0 W/m 7,7 C 9,1 C 6,4 km/h (2 Bft) 100,00 %
13.07.2020 04:24 9,8 C 87 % 1025,3 hPa 0,0 l/m 8,0 km/h (2 Bft) O-SO 112 0 min 0,000 mm 0,0 UV-I 0 W/m 7,7 C 8,8 C 11,3 km/h (2 Bft) 91,30 %
13.07.2020 04:23 9,9 C 87 % 1025,3 hPa 0,0 l/m 6,4 km/h (2 Bft) O-SO 112 0 min 0,000 mm 0,0 UV-I 0 W/m 7,8 C 9,3 C 8,0 km/h (2 Bft) 100,00 %
13.07.2020 04:22 9,8 C 87 % 1025,4 hPa 0,0 l/m 6,4 km/h (2 Bft) SO 135 0 min 0,000 mm 0,0 UV-I 0 W/m 7,7 C 9,1 C 6,4 km/h (2 Bft) 100,00 %
13.07.2020 04:21 9,9 C 87 % 1025,4 hPa 0,0 l/m 8,0 km/h (2 Bft) SO 135 0 min 0,000 mm 0,0 UV-I 0 W/m 7,8 C 8,9 C 11,3 km/h (2 Bft) 100,00 %
13.07.2020 04:20 9,9 C 87 % 1025,4 hPa 0,0 l/m 8,0 km/h (2 Bft) O-SO 112 0 min 0,000 mm 0,0 UV-I 0 W/m 7,8 C 8,9 C 12,9 km/h (3 Bft) 95,65 %
13.07.2020 04:19 9,9 C 87 % 1025,4 hPa 0,0 l/m 6,4 km/h (2 Bft) O-SO 112 0 min 0,000 mm 0,0 UV-I 0 W/m 7,8 C 9,3 C 8,0 km/h (2 Bft) 100,00 %
13.07.2020 04:18 9,9 C 87 % 1025,3 hPa 0,0 l/m 6,4 km/h (2 Bft) O-SO 112 0 min 0,000 mm 0,0 UV-I 0 W/m 7,8 C 9,3 C 8,0 km/h (2 Bft) 100,00 %
13.07.2020 04:17 9,9 C 87 % 1025,4 hPa 0,0 l/m 6,4 km/h (2 Bft) O-SO 112 0 min 0,000 mm 0,0 UV-I 0 W/m 7,8 C 9,3 C 6,4 km/h (2 Bft) 100,00 %
13.07.2020 04:16 9,9 C 87 % 1025,3 hPa 0,0 l/m 6,4 km/h (2 Bft) O-SO 112 0 min 0,000 mm 0,0 UV-I 0 W/m 7,8 C 9,3 C 9,7 km/h (2 Bft) 100,00 %
13.07.2020 04:15 9,9 C 87 % 1025,3 hPa 0,0 l/m 6,4 km/h (2 Bft) O-SO 112 0 min 0,000 mm 0,0 UV-I 0 W/m 7,8 C 9,3 C 9,7 km/h (2 Bft) 100,00 %
13.07.2020 04:14 9,9 C 87 % 1025,3 hPa 0,0 l/m 6,4 km/h (2 Bft) O-SO 112 0 min 0,000 mm 0,0 UV-I 0 W/m 7,8 C 9,3 C 9,7 km/h (2 Bft) 100,00 %
13.07.2020 04:13 9,9 C 87 % 1025,3 hPa 0,0 l/m 4,8 km/h (1 Bft) O-SO 112 0 min 0,000 mm 0,0 UV-I 0 W/m 7,8 C 9,7 C 9,7 km/h (2 Bft) 95,65 %
13.07.2020 04:12 9,9 C 86 % 1025,3 hPa 0,0 l/m 8,0 km/h (2 Bft) O-SO 112 0 min 0,000 mm 0,0 UV-I 0 W/m 7,7 C 8,9 C 11,3 km/h (2 Bft) 95,65 %
13.07.2020 04:11 9,9 C 86 % 1025,2 hPa 0,0 l/m 9,7 km/h (2 Bft) SO 135 0 min 0,000 mm 0,0 UV-I 0 W/m 7,7 C 8,6 C 12,9 km/h (3 Bft) 100,00 %
13.07.2020 04:10 9,9 C 86 % 1025,4 hPa 0,0 l/m 6,4 km/h (2 Bft) SO 135 0 min 0,000 mm 0,0 UV-I 0 W/m 7,7 C 9,3 C 11,3 km/h (2 Bft) 95,65 %
13.07.2020 04:09 10,0 C 86 % 1025,3 hPa 0,0 l/m 6,4 km/h (2 Bft) SO 135 0 min 0,000 mm 0,0 UV-I 0 W/m 7,8 C 9,4 C 9,7 km/h (2 Bft) 100,00 %
13.07.2020 04:08 10,0 C 86 % 1025,3 hPa 0,0 l/m 8,0 km/h (2 Bft) SO 135 0 min 0,000 mm 0,0 UV-I 0 W/m 7,8 C 9,0 C 11,3 km/h (2 Bft) 100,00 %
13.07.2020 04:07 10,1 C 86 % 1025,3 hPa 0,0 l/m 8,0 km/h (2 Bft) SO 135 0 min 0,000 mm 0,0 UV-I 0 W/m 7,9 C 10,1 C 11,3 km/h (2 Bft) 100,00 %
13.07.2020 04:06 10,1 C 86 % 1025,3 hPa 0,0 l/m 6,4 km/h (2 Bft) O-SO 112 0 min 0,000 mm 0,0 UV-I 0 W/m 7,9 C 10,1 C 9,7 km/h (2 Bft) 100,00 %
13.07.2020 04:05 10,1 C 86 % 1025,3 hPa 0,0 l/m 8,0 km/h (2 Bft) O-SO 112 0 min 0,000 mm 0,0 UV-I 0 W/m 7,9 C 10,1 C 9,7 km/h (2 Bft) 100,00 %
13.07.2020 04:04 10,1 C 86 % 1025,4 hPa 0,0 l/m 6,4 km/h (2 Bft) O-SO 112 0 min 0,000 mm 0,0 UV-I 0 W/m 7,9 C 10,1 C 9,7 km/h (2 Bft) 100,00 %
13.07.2020 04:03 10,1 C 86 % 1025,3 hPa 0,0 l/m 6,4 km/h (2 Bft) O-SO 112 0 min 0,000 mm 0,0 UV-I 0 W/m 7,9 C 10,1 C 9,7 km/h (2 Bft) 95,65 %
13.07.2020 04:02 10,1 C 86 % 1025,4 hPa 0,0 l/m 6,4 km/h (2 Bft) O-SO 112 0 min 0,000 mm 0,0 UV-I 0 W/m 7,9 C 10,1 C 11,3 km/h (2 Bft) 100,00 %
13.07.2020 04:01 10,1 C 86 % 1025,4 hPa 0,0 l/m 6,4 km/h (2 Bft) O-SO 112 0 min 0,000 mm 0,0 UV-I 0 W/m 7,9 C 10,1 C 9,7 km/h (2 Bft) 95,65 %
13.07.2020 04:00 10,1 C 86 % 1025,4 hPa 0,0 l/m 6,4 km/h (2 Bft) O-SO 112 0 min 0,025 mm 0,0 UV-I 0 W/m 7,9 C 10,1 C 9,7 km/h (2 Bft) 95,65 %
13.07.2020 03:59 10,1 C 86 % 1025,4 hPa 0,0 l/m 8,0 km/h (2 Bft) O-SO 112 0 min 0,000 mm 0,0 UV-I 0 W/m 7,9 C 10,1 C 9,7 km/h (2 Bft) 100,00 %
13.07.2020 03:58 10,1 C 86 % 1025,4 hPa 0,0 l/m 8,0 km/h (2 Bft) O-SO 112 0 min 0,000 mm 0,0 UV-I 0 W/m 7,9 C 10,1 C 11,3 km/h (2 Bft) 95,65 %
13.07.2020 03:57 10,1 C 86 % 1025,4 hPa 0,0 l/m 6,4 km/h (2 Bft) O-SO 112 0 min 0,000 mm 0,0 UV-I 0 W/m 7,9 C 10,1 C 9,7 km/h (2 Bft) 91,30 %
13.07.2020 03:56 10,1 C 86 % 1025,4 hPa 0,0 l/m 8,0 km/h (2 Bft) O-SO 112 0 min 0,000 mm 0,0 UV-I 0 W/m 7,9 C 10,1 C 9,7 km/h (2 Bft) 91,30 %
13.07.2020 03:55 10,1 C 86 % 1025,4 hPa 0,0 l/m 6,4 km/h (2 Bft) O-SO 112 0 min 0,000 mm 0,0 UV-I 0 W/m 7,9 C 10,1 C 9,7 km/h (2 Bft) 95,65 %
13.07.2020 03:54 10,1 C 86 % 1025,4 hPa 0,0 l/m 8,0 km/h (2 Bft) O-SO 112 0 min 0,000 mm 0,0 UV-I 0 W/m 7,9 C 10,1 C 9,7 km/h (2 Bft) 100,00 %
13.07.2020 03:53 10,1 C 86 % 1025,4 hPa 0,0 l/m 8,0 km/h (2 Bft) O-SO 112 0 min 0,000 mm 0,0 UV-I 0 W/m 7,9 C 10,1 C 9,7 km/h (2 Bft) 95,65 %
13.07.2020 03:52 10,2 C 86 % 1025,4 hPa 0,0 l/m 8,0 km/h (2 Bft) O-SO 112 0 min 0,000 mm 0,0 UV-I 0 W/m 8,0 C 10,2 C 9,7 km/h (2 Bft) 100,00 %
13.07.2020 03:51 10,2 C 86 % 1025,5 hPa 0,0 l/m 6,4 km/h (2 Bft) O-SO 112 0 min 0,000 mm 0,0 UV-I 0 W/m 8,0 C 10,2 C 9,7 km/h (2 Bft) 95,65 %
13.07.2020 03:50 10,2 C 86 % 1025,3 hPa 0,0 l/m 8,0 km/h (2 Bft) O-SO 112 0 min 0,000 mm 0,0 UV-I 0 W/m 8,0 C 10,2 C 9,7 km/h (2 Bft) 100,00 %
13.07.2020 03:49 10,2 C 86 % 1025,5 hPa 0,0 l/m 8,0 km/h (2 Bft) O-SO 112 0 min 0,000 mm 0,0 UV-I 0 W/m 8,0 C 10,2 C 11,3 km/h (2 Bft) 100,00 %
13.07.2020 03:48 10,2 C 85 % 1025,4 hPa 0,0 l/m 6,4 km/h (2 Bft) O-SO 112 0 min 0,000 mm 0,0 UV-I 0 W/m 7,8 C 10,2 C 8,0 km/h (2 Bft) 100,00 %
13.07.2020 03:47 10,2 C 85 % 1025,5 hPa 0,0 l/m 8,0 km/h (2 Bft) SO 135 0 min 0,000 mm 0,0 UV-I 0 W/m 7,8 C 10,2 C 8,0 km/h (2 Bft) 100,00 %
13.07.2020 03:46 10,2 C 85 % 1025,4 hPa 0,0 l/m 6,4 km/h (2 Bft) SO 135 0 min 0,000 mm 0,0 UV-I 0 W/m 7,8 C 10,2 C 8,0 km/h (2 Bft) 100,00 %
13.07.2020 03:45 10,2 C 85 % 1025,4 hPa 0,0 l/m 6,4 km/h (2 Bft) SO 135 0 min 0,000 mm 0,0 UV-I 0 W/m 7,8 C 10,2 C 8,0 km/h (2 Bft) 95,65 %
13.07.2020 03:44 10,2 C 85 % 1025,4 hPa 0,0 l/m 6,4 km/h (2 Bft) O-SO 112 0 min 0,000 mm 0,0 UV-I 0 W/m 7,8 C 10,2 C 11,3 km/h (2 Bft) 100,00 %
13.07.2020 03:43 10,2 C 85 % 1025,4 hPa 0,0 l/m 8,0 km/h (2 Bft) O-SO 112 0 min 0,000 mm 0,0 UV-I 0 W/m 7,8 C 10,2 C 9,7 km/h (2 Bft) 100,00 %
13.07.2020 03:42 10,2 C 85 % 1025,3 hPa 0,0 l/m 8,0 km/h (2 Bft) O-SO 112 0 min 0,000 mm 0,0 UV-I 0 W/m 7,8 C 10,2 C 11,3 km/h (2 Bft) 100,00 %
13.07.2020 03:41 10,3 C 85 % 1025,4 hPa 0,0 l/m 8,0 km/h (2 Bft) O-SO 112 0 min 0,000 mm 0,0 UV-I 0 W/m 7,9 C 10,3 C 9,7 km/h (2 Bft) 91,30 %
13.07.2020 03:40 10,3 C 85 % 1025,4 hPa 0,0 l/m 9,7 km/h (2 Bft) O-SO 112 0 min 0,000 mm 0,0 UV-I 0 W/m 7,9 C 10,3 C 11,3 km/h (2 Bft) 100,00 %
13.07.2020 03:39 10,3 C 85 % 1025,4 hPa 0,0 l/m 9,7 km/h (2 Bft) O-SO 112 0 min 0,000 mm 0,0 UV-I 0 W/m 7,9 C 10,3 C 12,9 km/h (3 Bft) 91,30 %
13.07.2020 03:38 10,3 C 85 % 1025,4 hPa 0,0 l/m 9,7 km/h (2 Bft) O-SO 112 0 min 0,000 mm 0,0 UV-I 0 W/m 7,9 C 10,3 C 11,3 km/h (2 Bft) 100,00 %
13.07.2020 03:37 10,3 C 85 % 1025,4 hPa 0,0 l/m 8,0 km/h (2 Bft) O-SO 112 0 min 0,000 mm 0,0 UV-I 0 W/m 7,9 C 10,3 C 9,7 km/h (2 Bft) 100,00 %
13.07.2020 03:36 10,3 C 85 % 1025,4 hPa 0,0 l/m 8,0 km/h (2 Bft) O-SO 112 0 min 0,000 mm 0,0 UV-I 0 W/m 7,9 C 10,3 C 11,3 km/h (2 Bft) 100,00 %
13.07.2020 03:35 10,3 C 85 % 1025,4 hPa 0,0 l/m 9,7 km/h (2 Bft) O-SO 112 0 min 0,000 mm 0,0 UV-I 0 W/m 7,9 C 10,3 C 11,3 km/h (2 Bft) 100,00 %
13.07.2020 03:34 10,3 C 85 % 1025,5 hPa 0,0 l/m 9,7 km/h (2 Bft) O-SO 112 0 min 0,000 mm 0,0 UV-I 0 W/m 7,9 C 10,3 C 9,7 km/h (2 Bft) 95,65 %
13.07.2020 03:33 10,3 C 85 % 1025,4 hPa 0,0 l/m 8,0 km/h (2 Bft) O-SO 112 0 min 0,000 mm 0,0 UV-I 0 W/m 7,9 C 10,3 C 11,3 km/h (2 Bft) 95,65 %
13.07.2020 03:32 10,3 C 85 % 1025,4 hPa 0,0 l/m 8,0 km/h (2 Bft) O-SO 112 0 min 0,000 mm 0,0 UV-I 0 W/m 7,9 C 10,3 C 9,7 km/h (2 Bft) 100,00 %
13.07.2020 03:31 10,3 C 85 % 1025,4 hPa 0,0 l/m 9,7 km/h (2 Bft) O-SO 112 0 min 0,000 mm 0,0 UV-I 0 W/m 7,9 C 10,3 C 11,3 km/h (2 Bft) 100,00 %
13.07.2020 03:30 10,4 C 85 % 1025,4 hPa 0,0 l/m 8,0 km/h (2 Bft) O-SO 112 0 min 0,000 mm 0,0 UV-I 0 W/m 8,0 C 10,4 C 8,0 km/h (2 Bft) 100,00 %
13.07.2020 03:29 10,4 C 85 % 1025,4 hPa 0,0 l/m 8,0 km/h (2 Bft) O-SO 112 0 min 0,000 mm 0,0 UV-I 0 W/m 8,0 C 10,4 C 8,0 km/h (2 Bft) 100,00 %
13.07.2020 03:28 10,4 C 84 % 1025,4 hPa 0,0 l/m 6,4 km/h (2 Bft) O-SO 112 0 min 0,000 mm 0,0 UV-I 0 W/m 7,8 C 10,4 C 8,0 km/h (2 Bft) 100,00 %
13.07.2020 03:27 10,4 C 84 % 1025,4 hPa 0,0 l/m 6,4 km/h (2 Bft) O-SO 112 0 min 0,000 mm 0,0 UV-I 0 W/m 7,8 C 10,4 C 8,0 km/h (2 Bft) 95,65 %
13.07.2020 03:26 10,4 C 84 % 1025,4 hPa 0,0 l/m 6,4 km/h (2 Bft) SO 135 0 min 0,000 mm 0,0 UV-I 0 W/m 7,8 C 10,4 C 8,0 km/h (2 Bft) 100,00 %
13.07.2020 03:25 10,4 C 84 % 1025,4 hPa 0,0 l/m 6,4 km/h (2 Bft) SO 135 0 min 0,000 mm 0,0 UV-I 0 W/m 7,8 C 10,4 C 8,0 km/h (2 Bft) 100,00 %
13.07.2020 03:24 10,4 C 84 % 1025,5 hPa 0,0 l/m 8,0 km/h (2 Bft) O-SO 112 0 min 0,000 mm 0,0 UV-I 0 W/m 7,8 C 10,4 C 11,3 km/h (2 Bft) 95,65 %
13.07.2020 03:23 10,4 C 84 % 1025,5 hPa 0,0 l/m 9,7 km/h (2 Bft) O-SO 112 0 min 0,000 mm 0,0 UV-I 0 W/m 7,8 C 10,4 C 11,3 km/h (2 Bft) 100,00 %
13.07.2020 03:22 10,4 C 84 % 1025,5 hPa 0,0 l/m 6,4 km/h (2 Bft) O-SO 112 0 min 0,000 mm 0,0 UV-I 0 W/m 7,8 C 10,4 C 8,0 km/h (2 Bft) 100,00 %
13.07.2020 03:21 10,4 C 84 % 1025,5 hPa 0,0 l/m 6,4 km/h (2 Bft) O-SO 112 0 min 0,000 mm 0,0 UV-I 0 W/m 7,8 C 10,4 C 8,0 km/h (2 Bft) 100,00 %
13.07.2020 03:20 10,4 C 84 % 1025,5 hPa 0,0 l/m 6,4 km/h (2 Bft) O-SO 112 0 min 0,000 mm 0,0 UV-I 0 W/m 7,8 C 10,4 C 8,0 km/h (2 Bft) 100,00 %
13.07.2020 03:19 10,5 C 84 % 1025,5 hPa 0,0 l/m 6,4 km/h (2 Bft) O-SO 112 0 min 0,000 mm 0,0 UV-I 0 W/m 7,9 C 10,5 C 8,0 km/h (2 Bft) 100,00 %
13.07.2020 03:18 10,5 C 84 % 1025,6 hPa 0,0 l/m 6,4 km/h (2 Bft) O-SO 112 0 min 0,000 mm 0,0 UV-I 0 W/m 7,9 C 10,5 C 8,0 km/h (2 Bft) 100,00 %
13.07.2020 03:17 10,5 C 83 % 1025,6 hPa 0,0 l/m 6,4 km/h (2 Bft) O-SO 112 0 min 0,000 mm 0,0 UV-I 0 W/m 7,7 C 10,5 C 8,0 km/h (2 Bft) 95,65 %
13.07.2020 03:16 10,6 C 83 % 1025,6 hPa 0,0 l/m 8,0 km/h (2 Bft) O-SO 112 0 min 0,000 mm 0,0 UV-I 0 W/m 7,8 C 10,6 C 8,0 km/h (2 Bft) 100,00 %
13.07.2020 03:15 10,6 C 83 % 1025,6 hPa 0,0 l/m 8,0 km/h (2 Bft) O-SO 112 0 min 0,000 mm 0,0 UV-I 0 W/m 7,8 C 10,6 C 8,0 km/h (2 Bft) 91,30 %
13.07.2020 03:14 10,6 C 83 % 1025,6 hPa 0,0 l/m 6,4 km/h (2 Bft) O-SO 112 0 min 0,000 mm 0,0 UV-I 0 W/m 7,8 C 10,6 C 8,0 km/h (2 Bft) 100,00 %
13.07.2020 03:13 10,6 C 83 % 1025,6 hPa 0,0 l/m 6,4 km/h (2 Bft) O-SO 112 0 min 0,000 mm 0,0 UV-I 0 W/m 7,8 C 10,6 C 8,0 km/h (2 Bft) 100,00 %
13.07.2020 03:12 10,6 C 83 % 1025,6 hPa 0,0 l/m 6,4 km/h (2 Bft) O-SO 112 0 min 0,000 mm 0,0 UV-I 0 W/m 7,8 C 10,6 C 8,0 km/h (2 Bft) 100,00 %
13.07.2020 03:11 10,6 C 83 % 1025,6 hPa 0,0 l/m 6,4 km/h (2 Bft) O-SO 112 0 min 0,000 mm 0,0 UV-I 0 W/m 7,8 C 10,6 C 9,7 km/h (2 Bft) 100,00 %
13.07.2020 03:10 10,7 C 83 % 1025,7 hPa 0,0 l/m 8,0 km/h (2 Bft) O-SO 112 0 min 0,000 mm 0,0 UV-I 0 W/m 7,9 C 10,7 C 9,7 km/h (2 Bft) 95,65 %
13.07.2020 03:09 10,7 C 83 % 1025,7 hPa 0,0 l/m 6,4 km/h (2 Bft) O-SO 112 0 min 0,000 mm 0,0 UV-I 0 W/m 7,9 C 10,7 C 9,7 km/h (2 Bft) 100,00 %
13.07.2020 03:08 10,7 C 83 % 1025,6 hPa 0,0 l/m 6,4 km/h (2 Bft) O-SO 112 0 min 0,000 mm 0,0 UV-I 0 W/m 7,9 C 10,7 C 6,4 km/h (2 Bft) 95,65 %
13.07.2020 03:07 10,7 C 83 % 1025,6 hPa 0,0 l/m 6,4 km/h (2 Bft) O-SO 112 0 min 0,000 mm 0,0 UV-I 0 W/m 7,9 C 10,7 C 6,4 km/h (2 Bft) 100,00 %
13.07.2020 03:06 10,8 C 83 % 1025,6 hPa 0,0 l/m 6,4 km/h (2 Bft) O-SO 112 0 min 0,000 mm 0,0 UV-I 0 W/m 8,0 C 10,8 C 6,4 km/h (2 Bft) 100,00 %
13.07.2020 03:05 10,8 C 82 % 1025,6 hPa 0,0 l/m 6,4 km/h (2 Bft) O-SO 112 0 min 0,000 mm 0,0 UV-I 0 W/m 7,9 C 10,8 C 6,4 km/h (2 Bft) 100,00 %
13.07.2020 03:04 10,8 C 82 % 1025,6 hPa 0,0 l/m 6,4 km/h (2 Bft) O-SO 112 0 min 0,000 mm 0,0 UV-I 0 W/m 7,9 C 10,8 C 6,4 km/h (2 Bft) 100,00 %
13.07.2020 03:03 10,8 C 82 % 1025,6 hPa 0,0 l/m 6,4 km/h (2 Bft) O-SO 112 0 min 0,000 mm 0,0 UV-I 0 W/m 7,9 C 10,8 C 9,7 km/h (2 Bft) 100,00 %
13.07.2020 03:02 10,8 C 82 % 1025,6 hPa 0,0 l/m 6,4 km/h (2 Bft) O-SO 112 0 min 0,000 mm 0,0 UV-I 0 W/m 7,9 C 10,8 C 9,7 km/h (2 Bft) 100,00 %
13.07.2020 03:01 10,8 C 82 % 1025,6 hPa 0,0 l/m 6,4 km/h (2 Bft) O-SO 112 0 min 0,000 mm 0,0 UV-I 0 W/m 7,9 C 10,8 C 9,7 km/h (2 Bft) 100,00 %
13.07.2020 03:00 10,9 C 82 % 1025,7 hPa 0,0 l/m 6,4 km/h (2 Bft) O-SO 112 0 min 0,025 mm 0,0 UV-I 0 W/m 7,9 C 10,9 C 9,7 km/h (2 Bft) 95,65 %
13.07.2020 02:59 10,9 C 82 % 1025,6 hPa 0,0 l/m 6,4 km/h (2 Bft) O-SO 112 0 min 0,000 mm 0,0 UV-I 0 W/m 7,9 C 10,9 C 9,7 km/h (2 Bft) 100,00 %
13.07.2020 02:58 10,9 C 82 % 1025,7 hPa 0,0 l/m 6,4 km/h (2 Bft) O-SO 112 0 min 0,000 mm 0,0 UV-I 0 W/m 7,9 C 10,9 C 9,7 km/h (2 Bft) 100,00 %
13.07.2020 02:57 11,0 C 82 % 1025,7 hPa 0,0 l/m 6,4 km/h (2 Bft) O-SO 112 0 min 0,000 mm 0,0 UV-I 0 W/m 8,0 C 11,0 C 6,4 km/h (2 Bft) 95,65 %
13.07.2020 02:56 11,0 C 81 % 1025,7 hPa 0,0 l/m 8,0 km/h (2 Bft) O-SO 112 0 min 0,000 mm 0,0 UV-I 0 W/m 7,9 C 11,0 C 9,7 km/h (2 Bft) 100,00 %
13.07.2020 02:55 11,0 C 81 % 1025,7 hPa 0,0 l/m 6,4 km/h (2 Bft) O-SO 112 0 min 0,000 mm 0,0 UV-I 0 W/m 7,9 C 11,0 C 9,7 km/h (2 Bft) 95,65 %
13.07.2020 02:54 11,1 C 81 % 1025,7 hPa 0,0 l/m 6,4 km/h (2 Bft) O-SO 112 0 min 0,000 mm 0,0 UV-I 0 W/m 8,0 C 11,1 C 9,7 km/h (2 Bft) 100,00 %
13.07.2020 02:53 11,1 C 81 % 1025,7 hPa 0,0 l/m 6,4 km/h (2 Bft) O-SO 112 0 min 0,000 mm 0,0 UV-I 0 W/m 8,0 C 11,1 C 9,7 km/h (2 Bft) 100,00 %
13.07.2020 02:52 11,1 C 81 % 1025,7 hPa 0,0 l/m 6,4 km/h (2 Bft) O-SO 112 0 min 0,000 mm 0,0 UV-I 0 W/m 8,0 C 11,1 C 9,7 km/h (2 Bft) 95,65 %
13.07.2020 02:51 11,1 C 81 % 1025,7 hPa 0,0 l/m 6,4 km/h (2 Bft) O-SO 112 0 min 0,000 mm 0,0 UV-I 0 W/m 8,0 C 11,1 C 9,7 km/h (2 Bft) 100,00 %
13.07.2020 02:50 11,2 C 81 % 1025,7 hPa 0,0 l/m 6,4 km/h (2 Bft) O-SO 112 0 min 0,000 mm 0,0 UV-I 0 W/m 8,1 C 11,2 C 9,7 km/h (2 Bft) 95,65 %
13.07.2020 02:49 11,2 C 81 % 1025,7 hPa 0,0 l/m 6,4 km/h (2 Bft) O-SO 112 0 min 0,000 mm 0,0 UV-I 0 W/m 8,1 C 11,2 C 6,4 km/h (2 Bft) 100,00 %
13.07.2020 02:48 11,2 C 81 % 1025,6 hPa 0,0 l/m 6,4 km/h (2 Bft) O-SO 112 0 min 0,000 mm 0,0 UV-I 0 W/m 8,1 C 11,2 C 9,7 km/h (2 Bft) 100,00 %
13.07.2020 02:47 11,2 C 80 % 1025,7 hPa 0,0 l/m 6,4 km/h (2 Bft) O-SO 112 0 min 0,000 mm 0,0 UV-I 0 W/m 7,9 C 11,2 C 9,7 km/h (2 Bft) 100,00 %
13.07.2020 02:46 11,2 C 80 % 1025,7 hPa 0,0 l/m 6,4 km/h (2 Bft) O-SO 112 0 min 0,000 mm 0,0 UV-I 0 W/m 7,9 C 11,2 C 9,7 km/h (2 Bft) 100,00 %
13.07.2020 02:45 11,2 C 80 % 1025,7 hPa 0,0 l/m 6,4 km/h (2 Bft) O-SO 112 0 min 0,000 mm 0,0 UV-I 0 W/m 7,9 C 11,2 C 9,7 km/h (2 Bft) 100,00 %
13.07.2020 02:44 11,3 C 80 % 1025,7 hPa 0,0 l/m 6,4 km/h (2 Bft) O-SO 112 0 min 0,000 mm 0,0 UV-I 0 W/m 8,0 C 11,3 C 8,0 km/h (2 Bft) 100,00 %
13.07.2020 02:43 11,3 C 80 % 1025,7 hPa 0,0 l/m 6,4 km/h (2 Bft) O-SO 112 0 min 0,000 mm 0,0 UV-I 0 W/m 8,0 C 11,3 C 6,4 km/h (2 Bft) 100,00 %
13.07.2020 02:42 11,3 C 80 % 1025,7 hPa 0,0 l/m 6,4 km/h (2 Bft) O-SO 112 0 min 0,000 mm 0,0 UV-I 0 W/m 8,0 C 11,3 C 8,0 km/h (2 Bft) 100,00 %
13.07.2020 02:41 11,3 C 80 % 1025,8 hPa 0,0 l/m 8,0 km/h (2 Bft) SO 135 0 min 0,000 mm 0,0 UV-I 0 W/m 8,0 C 11,3 C 11,3 km/h (2 Bft) 95,65 %
13.07.2020 02:40 11,3 C 80 % 1025,7 hPa 0,0 l/m 6,4 km/h (2 Bft) SO 135 0 min 0,000 mm 0,0 UV-I 0 W/m 8,0 C 11,3 C 8,0 km/h (2 Bft) 91,30 %
13.07.2020 02:39 11,3 C 80 % 1025,7 hPa 0,0 l/m 6,4 km/h (2 Bft) SO 135 0 min 0,000 mm 0,0 UV-I 0 W/m 8,0 C 11,3 C 16,1 km/h (3 Bft) 100,00 %
13.07.2020 02:38 11,3 C 80 % 1025,6 hPa 0,0 l/m 8,0 km/h (2 Bft) SO 135 0 min 0,000 mm 0,0 UV-I 0 W/m 8,0 C 11,3 C 12,9 km/h (3 Bft) 95,65 %
13.07.2020 02:37 11,3 C 80 % 1025,7 hPa 0,0 l/m 9,7 km/h (2 Bft) O-SO 112 0 min 0,000 mm 0,0 UV-I 0 W/m 8,0 C 11,3 C 16,1 km/h (3 Bft) 100,00 %
13.07.2020 02:36 11,3 C 80 % 1025,7 hPa 0,0 l/m 8,0 km/h (2 Bft) O-SO 112 0 min 0,000 mm 0,0 UV-I 0 W/m 8,0 C 11,3 C 11,3 km/h (2 Bft) 95,65 %
13.07.2020 02:35 11,3 C 80 % 1025,7 hPa 0,0 l/m 9,7 km/h (2 Bft) SO 135 0 min 0,000 mm 0,0 UV-I 0 W/m 8,0 C 11,3 C 11,3 km/h (2 Bft) 100,00 %
13.07.2020 02:34 11,3 C 80 % 1025,8 hPa 0,0 l/m 6,4 km/h (2 Bft) SO 135 0 min 0,000 mm 0,0 UV-I 0 W/m 8,0 C 11,3 C 6,4 km/h (2 Bft) 100,00 %
13.07.2020 02:33 11,3 C 79 % 1025,7 hPa 0,0 l/m 8,0 km/h (2 Bft) SO 135 0 min 0,000 mm 0,0 UV-I 0 W/m 7,8 C 11,3 C 14,5 km/h (3 Bft) 100,00 %
13.07.2020 02:32 11,3 C 79 % 1025,7 hPa 0,0 l/m 9,7 km/h (2 Bft) O-SO 112 0 min 0,000 mm 0,0 UV-I 0 W/m 7,8 C 11,3 C 14,5 km/h (3 Bft) 100,00 %
13.07.2020 02:31 11,3 C 80 % 1025,7 hPa 0,0 l/m 6,4 km/h (2 Bft) SO 135 0 min 0,000 mm 0,0 UV-I 0 W/m 8,0 C 11,3 C 8,0 km/h (2 Bft) 100,00 %
13.07.2020 02:30 11,3 C 80 % 1025,8 hPa 0,0 l/m 6,4 km/h (2 Bft) O-SO 112 0 min 0,000 mm 0,0 UV-I 0 W/m 8,0 C 11,3 C 9,7 km/h (2 Bft) 100,00 %
13.07.2020 02:29 11,3 C 79 % 1025,8 hPa 0,0 l/m 6,4 km/h (2 Bft) O-SO 112 0 min 0,000 mm 0,0 UV-I 0 W/m 7,8 C 11,3 C 9,7 km/h (2 Bft) 100,00 %
13.07.2020 02:28 11,3 C 79 % 1025,8 hPa 0,0 l/m 8,0 km/h (2 Bft) O-SO 112 0 min 0,000 mm 0,0 UV-I 0 W/m 7,8 C 11,3 C 11,3 km/h (2 Bft) 100,00 %
13.07.2020 02:27 11,3 C 80 % 1025,8 hPa 0,0 l/m 6,4 km/h (2 Bft) O-SO 112 0 min 0,000 mm 0,0 UV-I 0 W/m 8,0 C 11,3 C 14,5 km/h (3 Bft) 95,65 %
13.07.2020 02:26 11,3 C 79 % 1025,7 hPa 0,0 l/m 8,0 km/h (2 Bft) O-SO 112 0 min 0,000 mm 0,0 UV-I 0 W/m 7,8 C 11,3 C 12,9 km/h (3 Bft) 100,00 %
13.07.2020 02:25 11,3 C 80 % 1025,8 hPa 0,0 l/m 6,4 km/h (2 Bft) O-SO 112 0 min 0,000 mm 0,0 UV-I 0 W/m 8,0 C 11,3 C 9,7 km/h (2 Bft) 100,00 %
13.07.2020 02:24 11,3 C 80 % 1025,7 hPa 0,0 l/m 4,8 km/h (1 Bft) O 90 0 min 0,000 mm 0,0 UV-I 0 W/m 8,0 C 11,3 C 6,4 km/h (2 Bft) 100,00 %
13.07.2020 02:23 11,3 C 80 % 1025,8 hPa 0,0 l/m 6,4 km/h (2 Bft) O-SO 112 0 min 0,000 mm 0,0 UV-I 0 W/m 8,0 C 11,3 C 11,3 km/h (2 Bft) 100,00 %
13.07.2020 02:22 11,3 C 80 % 1025,8 hPa 0,0 l/m 6,4 km/h (2 Bft) SO 135 0 min 0,000 mm 0,0 UV-I 0 W/m 8,0 C 11,3 C 12,9 km/h (3 Bft) 100,00 %
13.07.2020 02:21 11,3 C 80 % 1025,8 hPa 0,0 l/m 4,8 km/h (1 Bft) O-SO 112 0 min 0,000 mm 0,0 UV-I 0 W/m 8,0 C 11,3 C 11,3 km/h (2 Bft) 100,00 %
13.07.2020 02:20 11,3 C 80 % 1025,9 hPa 0,0 l/m 4,8 km/h (1 Bft) SO 135 0 min 0,000 mm 0,0 UV-I 0 W/m 8,0 C 11,3 C 6,4 km/h (2 Bft) 100,00 %
13.07.2020 02:19 11,3 C 80 % 1025,9 hPa 0,0 l/m 6,4 km/h (2 Bft) O-SO 112 0 min 0,000 mm 0,0 UV-I 0 W/m 8,0 C 11,3 C 8,0 km/h (2 Bft) 100,00 %
13.07.2020 02:18 11,3 C 80 % 1025,8 hPa 0,0 l/m 6,4 km/h (2 Bft) O-SO 112 0 min 0,000 mm 0,0 UV-I 0 W/m 8,0 C 11,3 C 8,0 km/h (2 Bft) 100,00 %
13.07.2020 02:17 11,4 C 79 % 1025,9 hPa 0,0 l/m 6,4 km/h (2 Bft) O-SO 112 0 min 0,000 mm 0,0 UV-I 0 W/m 7,9 C 11,4 C 14,5 km/h (3 Bft) 100,00 %
13.07.2020 02:16 11,4 C 79 % 1025,8 hPa 0,0 l/m 6,4 km/h (2 Bft) O-SO 112 0 min 0,000 mm 0,0 UV-I 0 W/m 7,9 C 11,4 C 14,5 km/h (3 Bft) 100,00 %
13.07.2020 02:15 11,4 C 79 % 1025,8 hPa 0,0 l/m 8,0 km/h (2 Bft) O-SO 112 0 min 0,000 mm 0,0 UV-I 0 W/m 7,9 C 11,4 C 12,9 km/h (3 Bft) 100,00 %
13.07.2020 02:14 11,4 C 79 % 1025,8 hPa 0,0 l/m 6,4 km/h (2 Bft) O-SO 112 0 min 0,000 mm 0,0 UV-I 0 W/m 7,9 C 11,4 C 11,3 km/h (2 Bft) 100,00 %
13.07.2020 02:13 11,4 C 79 % 1025,8 hPa 0,0 l/m 6,4 km/h (2 Bft) O-SO 112 0 min 0,000 mm 0,0 UV-I 0 W/m 7,9 C 11,4 C 9,7 km/h (2 Bft) 100,00 %
13.07.2020 02:12 11,4 C 79 % 1025,8 hPa 0,0 l/m 4,8 km/h (1 Bft) O-SO 112 0 min 0,000 mm 0,0 UV-I 0 W/m 7,9 C 11,4 C 6,4 km/h (2 Bft) 100,00 %
13.07.2020 02:11 11,4 C 79 % 1025,9 hPa 0,0 l/m 6,4 km/h (2 Bft) SO 135 0 min 0,000 mm 0,0 UV-I 0 W/m 7,9 C 11,4 C 9,7 km/h (2 Bft) 100,00 %
13.07.2020 02:10 11,4 C 79 % 1026,0 hPa 0,0 l/m 4,8 km/h (1 Bft) O-SO 112 0 min 0,000 mm 0,0 UV-I 0 W/m 7,9 C 11,4 C 6,4 km/h (2 Bft) 95,65 %
13.07.2020 02:09 11,4 C 79 % 1025,9 hPa 0,0 l/m 6,4 km/h (2 Bft) O 90 0 min 0,000 mm 0,0 UV-I 0 W/m 7,9 C 11,4 C 9,7 km/h (2 Bft) 100,00 %
13.07.2020 02:08 11,4 C 79 % 1025,9 hPa 0,0 l/m 4,8 km/h (1 Bft) SO 135 0 min 0,000 mm 0,0 UV-I 0 W/m 7,9 C 11,4 C 6,4 km/h (2 Bft) 100,00 %
13.07.2020 02:07 11,4 C 79 % 1025,9 hPa 0,0 l/m 4,8 km/h (1 Bft) SO 135 0 min 0,000 mm 0,0 UV-I 0 W/m 7,9 C 11,4 C 6,4 km/h (2 Bft) 100,00 %
13.07.2020 02:06 11,5 C 79 % 1025,9 hPa 0,0 l/m 4,8 km/h (1 Bft) SO 135 0 min 0,000 mm 0,0 UV-I 0 W/m 8,0 C 11,5 C 6,4 km/h (2 Bft) 100,00 %
13.07.2020 02:05 11,6 C 79 % 1025,9 hPa 0,0 l/m 4,8 km/h (1 Bft) O-SO 112 0 min 0,000 mm 0,0 UV-I 0 W/m 8,1 C 11,6 C 8,0 km/h (2 Bft) 100,00 %
13.07.2020 02:04 11,6 C 79 % 1025,9 hPa 0,0 l/m 4,8 km/h (1 Bft) O-SO 112 0 min 0,000 mm 0,0 UV-I 0 W/m 8,1 C 11,6 C 4,8 km/h (1 Bft) 100,00 %
13.07.2020 02:03 11,6 C 79 % 1026,0 hPa 0,0 l/m 4,8 km/h (1 Bft) O-SO 112 0 min 0,000 mm 0,0 UV-I 0 W/m 8,1 C 11,6 C 6,4 km/h (2 Bft) 100,00 %
13.07.2020 02:02 11,6 C 78 % 1025,9 hPa 0,0 l/m 3,2 km/h (1 Bft) O-SO 112 0 min 0,000 mm 0,0 UV-I 0 W/m 7,9 C 11,6 C 4,8 km/h (1 Bft) 100,00 %
13.07.2020 02:01 11,7 C 78 % 1025,9 hPa 0,0 l/m 3,2 km/h (1 Bft) O-SO 112 0 min 0,000 mm 0,0 UV-I 0 W/m 8,0 C 11,7 C 4,8 km/h (1 Bft) 100,00 %
13.07.2020 02:00 11,7 C 78 % 1026,0 hPa 0,0 l/m 1,6 km/h (1 Bft) O-SO 112 0 min 0,025 mm 0,0 UV-I 0 W/m 8,0 C 11,7 C 4,8 km/h (1 Bft) 95,65 %
13.07.2020 01:59 11,7 C 78 % 1026,0 hPa 0,0 l/m 1,6 km/h (1 Bft) O-SO 112 0 min 0,000 mm 0,0 UV-I 0 W/m 8,0 C 11,7 C 4,8 km/h (1 Bft) 100,00 %
13.07.2020 01:58 11,7 C 78 % 1026,0 hPa 0,0 l/m 3,2 km/h (1 Bft) O-SO 112 0 min 0,000 mm 0,0 UV-I 0 W/m 8,0 C 11,7 C 4,8 km/h (1 Bft) 100,00 %
13.07.2020 01:57 11,7 C 78 % 1026,0 hPa 0,0 l/m 3,2 km/h (1 Bft) O-SO 112 0 min 0,000 mm 0,0 UV-I 0 W/m 8,0 C 11,7 C 4,8 km/h (1 Bft) 100,00 %
13.07.2020 01:56 11,7 C 78 % 1026,1 hPa 0,0 l/m 1,6 km/h (1 Bft) O-SO 112 0 min 0,000 mm 0,0 UV-I 0 W/m 8,0 C 11,7 C 4,8 km/h (1 Bft) 100,00 %
13.07.2020 01:55 11,8 C 78 % 1026,1 hPa 0,0 l/m 3,2 km/h (1 Bft) O-SO 112 0 min 0,000 mm 0,0 UV-I 0 W/m 8,1 C 11,8 C 3,2 km/h (1 Bft) 95,65 %
13.07.2020 01:54 11,8 C 77 % 1026,0 hPa 0,0 l/m 3,2 km/h (1 Bft) O-SO 112 0 min 0,000 mm 0,0 UV-I 0 W/m 7,9 C 11,8 C 6,4 km/h (2 Bft) 100,00 %
13.07.2020 01:53 11,8 C 77 % 1026,1 hPa 0,0 l/m 4,8 km/h (1 Bft) O-SO 112 0 min 0,000 mm 0,0 UV-I 0 W/m 7,9 C 11,8 C 4,8 km/h (1 Bft) 100,00 %
13.07.2020 01:52 11,8 C 77 % 1026,1 hPa 0,0 l/m 4,8 km/h (1 Bft) O-SO 112 0 min 0,000 mm 0,0 UV-I 0 W/m 7,9 C 11,8 C 6,4 km/h (2 Bft) 95,65 %
13.07.2020 01:51 11,8 C 77 % 1026,0 hPa 0,0 l/m 4,8 km/h (1 Bft) O-SO 112 0 min 0,000 mm 0,0 UV-I 0 W/m 7,9 C 11,8 C 6,4 km/h (2 Bft) 100,00 %
13.07.2020 01:50 11,8 C 77 % 1026,1 hPa 0,0 l/m 3,2 km/h (1 Bft) O-SO 112 0 min 0,000 mm 0,0 UV-I 0 W/m 7,9 C 11,8 C 6,4 km/h (2 Bft) 95,65 %
13.07.2020 01:49 11,8 C 77 % 1026,0 hPa 0,0 l/m 3,2 km/h (1 Bft) O-SO 112 0 min 0,000 mm 0,0 UV-I 0 W/m 7,9 C 11,8 C 6,4 km/h (2 Bft) 100,00 %
13.07.2020 01:48 11,8 C 77 % 1026,2 hPa 0,0 l/m 3,2 km/h (1 Bft) O-SO 112 0 min 0,000 mm 0,0 UV-I 0 W/m 7,9 C 11,8 C 4,8 km/h (1 Bft) 100,00 %
13.07.2020 01:47 11,8 C 77 % 1026,1 hPa 0,0 l/m 3,2 km/h (1 Bft) O-SO 112 0 min 0,000 mm 0,0 UV-I 0 W/m 7,9 C 11,8 C 4,8 km/h (1 Bft) 100,00 %
13.07.2020 01:46 11,8 C 77 % 1026,1 hPa 0,0 l/m 3,2 km/h (1 Bft) O-SO 112 0 min 0,000 mm 0,0 UV-I 0 W/m 7,9 C 11,8 C 4,8 km/h (1 Bft) 100,00 %
13.07.2020 01:45 11,8 C 77 % 1026,1 hPa 0,0 l/m 4,8 km/h (1 Bft) O-SO 112 0 min 0,000 mm 0,0 UV-I 0 W/m 7,9 C 11,8 C 6,4 km/h (2 Bft) 100,00 %
13.07.2020 01:44 11,9 C 77 % 1026,1 hPa 0,0 l/m 4,8 km/h (1 Bft) O-SO 112 0 min 0,000 mm 0,0 UV-I 0 W/m 8,0 C 11,9 C 4,8 km/h (1 Bft) 100,00 %
13.07.2020 01:43 11,9 C 77 % 1026,1 hPa 0,0 l/m 3,2 km/h (1 Bft) O-SO 112 0 min 0,000 mm 0,0 UV-I 0 W/m 8,0 C 11,9 C 4,8 km/h (1 Bft) 100,00 %
13.07.2020 01:42 11,9 C 77 % 1026,1 hPa 0,0 l/m 3,2 km/h (1 Bft) O-SO 112 0 min 0,000 mm 0,0 UV-I 0 W/m 8,0 C 11,9 C 4,8 km/h (1 Bft) 100,00 %
13.07.2020 01:41 11,9 C 77 % 1026,1 hPa 0,0 l/m 3,2 km/h (1 Bft) O-SO 112 0 min 0,000 mm 0,0 UV-I 0 W/m 8,0 C 11,9 C 6,4 km/h (2 Bft) 100,00 %
13.07.2020 01:40 12,0 C 77 % 1026,1 hPa 0,0 l/m 1,6 km/h (1 Bft) O-SO 112 0 min 0,000 mm 0,0 UV-I 0 W/m 8,1 C 12,0 C 3,2 km/h (1 Bft) 95,65 %
13.07.2020 01:39 11,9 C 77 % 1026,1 hPa 0,0 l/m 3,2 km/h (1 Bft) O-SO 112 0 min 0,000 mm 0,0 UV-I 0 W/m 8,0 C 11,9 C 4,8 km/h (1 Bft) 100,00 %
13.07.2020 01:38 12,0 C 77 % 1026,1 hPa 0,0 l/m 3,2 km/h (1 Bft) O-SO 112 0 min 0,000 mm 0,0 UV-I 0 W/m 8,1 C 12,0 C 3,2 km/h (1 Bft) 100,00 %
13.07.2020 01:37 12,0 C 77 % 1026,2 hPa 0,0 l/m 1,6 km/h (1 Bft) O-SO 112 0 min 0,000 mm 0,0 UV-I 0 W/m 8,1 C 12,0 C 3,2 km/h (1 Bft) 100,00 %
13.07.2020 01:36 12,0 C 77 % 1026,2 hPa 0,0 l/m 3,2 km/h (1 Bft) O-SO 112 0 min 0,000 mm 0,0 UV-I 0 W/m 8,1 C 12,0 C 4,8 km/h (1 Bft) 95,65 %
13.07.2020 01:35 12,0 C 77 % 1026,1 hPa 0,0 l/m 4,8 km/h (1 Bft) O-SO 112 0 min 0,000 mm 0,0 UV-I 0 W/m 8,1 C 12,0 C 4,8 km/h (1 Bft) 100,00 %
13.07.2020 01:34 12,1 C 77 % 1026,1 hPa 0,0 l/m 3,2 km/h (1 Bft) O-SO 112 0 min 0,000 mm 0,0 UV-I 0 W/m 8,2 C 12,1 C 4,8 km/h (1 Bft) 100,00 %
13.07.2020 01:33 12,1 C 76 % 1026,2 hPa 0,0 l/m 4,8 km/h (1 Bft) O-SO 112 0 min 0,000 mm 0,0 UV-I 0 W/m 8,0 C 12,1 C 6,4 km/h (2 Bft) 100,00 %
13.07.2020 01:32 12,1 C 77 % 1026,2 hPa 0,0 l/m 3,2 km/h (1 Bft) O-SO 112 0 min 0,000 mm 0,0 UV-I 0 W/m 8,2 C 12,1 C 4,8 km/h (1 Bft) 100,00 %
13.07.2020 01:31 12,1 C 76 % 1026,1 hPa 0,0 l/m 3,2 km/h (1 Bft) O-SO 112 0 min 0,000 mm 0,0 UV-I 0 W/m 8,0 C 12,1 C 4,8 km/h (1 Bft) 100,00 %
13.07.2020 01:30 12,1 C 77 % 1026,1 hPa 0,0 l/m 4,8 km/h (1 Bft) O-SO 112 0 min 0,000 mm 0,0 UV-I 0 W/m 8,2 C 12,1 C 4,8 km/h (1 Bft) 100,00 %
13.07.2020 01:29 12,1 C 77 % 1026,2 hPa 0,0 l/m 3,2 km/h (1 Bft) O-SO 112 0 min 0,000 mm 0,0 UV-I 0 W/m 8,2 C 12,1 C 4,8 km/h (1 Bft) 100,00 %
13.07.2020 01:28 12,1 C 76 % 1026,2 hPa 0,0 l/m 4,8 km/h (1 Bft) O-SO 112 0 min 0,000 mm 0,0 UV-I 0 W/m 8,0 C 12,1 C 4,8 km/h (1 Bft) 100,00 %
13.07.2020 01:27 12,1 C 77 % 1026,2 hPa 0,0 l/m 6,4 km/h (2 Bft) O-SO 112 0 min 0,000 mm 0,0 UV-I 0 W/m 8,2 C 12,1 C 9,7 km/h (2 Bft) 100,00 %
13.07.2020 01:26 12,1 C 77 % 1026,1 hPa 0,0 l/m 8,0 km/h (2 Bft) O-SO 112 0 min 0,000 mm 0,0 UV-I 0 W/m 8,2 C 12,1 C 11,3 km/h (2 Bft) 95,65 %
13.07.2020 01:25 12,1 C 77 % 1026,1 hPa 0,0 l/m 6,4 km/h (2 Bft) O-SO 112 0 min 0,000 mm 0,0 UV-I 0 W/m 8,2 C 12,1 C 11,3 km/h (2 Bft) 100,00 %
13.07.2020 01:24 12,1 C 77 % 1026,1 hPa 0,0 l/m 4,8 km/h (1 Bft) O-SO 112 0 min 0,000 mm 0,0 UV-I 0 W/m 8,2 C 12,1 C 6,4 km/h (2 Bft) 100,00 %
13.07.2020 01:23 12,1 C 77 % 1026,2 hPa 0,0 l/m 4,8 km/h (1 Bft) SO 135 0 min 0,000 mm 0,0 UV-I 0 W/m 8,2 C 12,1 C 6,4 km/h (2 Bft) 100,00 %
13.07.2020 01:22 12,0 C 76 % 1026,2 hPa 0,0 l/m 4,8 km/h (1 Bft) SO 135 0 min 0,000 mm 0,0 UV-I 0 W/m 7,9 C 12,0 C 6,4 km/h (2 Bft) 95,65 %
13.07.2020 01:21 12,1 C 76 % 1026,2 hPa 0,0 l/m 4,8 km/h (1 Bft) SO 135 0 min 0,000 mm 0,0 UV-I 0 W/m 8,0 C 12,1 C 8,0 km/h (2 Bft) 100,00 %
13.07.2020 01:20 12,0 C 77 % 1026,2 hPa 0,0 l/m 1,6 km/h (1 Bft) O-SO 112 0 min 0,000 mm 0,0 UV-I 0 W/m 8,1 C 12,0 C 3,2 km/h (1 Bft) 100,00 %
13.07.2020 01:19 12,0 C 77 % 1026,2 hPa 0,0 l/m 4,8 km/h (1 Bft) O-SO 112 0 min 0,000 mm 0,0 UV-I 0 W/m 8,1 C 12,0 C 6,4 km/h (2 Bft) 100,00 %
13.07.2020 01:18 12,0 C 77 % 1026,2 hPa 0,0 l/m 3,2 km/h (1 Bft) SO 135 0 min 0,000 mm 0,0 UV-I 0 W/m 8,1 C 12,0 C 4,8 km/h (1 Bft) 100,00 %
13.07.2020 01:17 11,9 C 77 % 1026,2 hPa 0,0 l/m 4,8 km/h (1 Bft) SO 135 0 min 0,000 mm 0,0 UV-I 0 W/m 8,0 C 11,9 C 9,7 km/h (2 Bft) 100,00 %
13.07.2020 01:16 11,9 C 77 % 1026,2 hPa 0,0 l/m 6,4 km/h (2 Bft) O-SO 112 0 min 0,000 mm 0,0 UV-I 0 W/m 8,0 C 11,9 C 11,3 km/h (2 Bft) 100,00 %
13.07.2020 01:15 11,9 C 77 % 1026,2 hPa 0,0 l/m 6,4 km/h (2 Bft) O-SO 112 0 min 0,000 mm 0,0 UV-I 0 W/m 8,0 C 11,9 C 11,3 km/h (2 Bft) 100,00 %
13.07.2020 01:14 11,9 C 77 % 1026,3 hPa 0,0 l/m 3,2 km/h (1 Bft) O 90 0 min 0,000 mm 0,0 UV-I 0 W/m 8,0 C 11,9 C 4,8 km/h (1 Bft) 100,00 %
13.07.2020 01:13 11,8 C 78 % 1026,3 hPa 0,0 l/m 4,8 km/h (1 Bft) O-SO 112 0 min 0,000 mm 0,0 UV-I 0 W/m 8,1 C 11,8 C 9,7 km/h (2 Bft) 100,00 %
13.07.2020 01:12 11,8 C 78 % 1026,3 hPa 0,0 l/m 3,2 km/h (1 Bft) O-SO 112 0 min 0,000 mm 0,0 UV-I 0 W/m 8,1 C 11,8 C 4,8 km/h (1 Bft) 100,00 %
13.07.2020 01:11 11,8 C 78 % 1026,3 hPa 0,0 l/m 3,2 km/h (1 Bft) O 90 0 min 0,000 mm 0,0 UV-I 0 W/m 8,1 C 11,8 C 4,8 km/h (1 Bft) 100,00 %
13.07.2020 01:10 11,8 C 77 % 1026,3 hPa 0,0 l/m 3,2 km/h (1 Bft) O 90 0 min 0,000 mm 0,0 UV-I 0 W/m 7,9 C 11,8 C 6,4 km/h (2 Bft) 100,00 %
13.07.2020 01:09 11,8 C 77 % 1026,3 hPa 0,0 l/m 6,4 km/h (2 Bft) SO 135 0 min 0,000 mm 0,0 UV-I 0 W/m 7,9 C 11,8 C 11,3 km/h (2 Bft) 95,65 %
13.07.2020 01:08 11,8 C 78 % 1026,3 hPa 0,0 l/m 4,8 km/h (1 Bft) O-SO 112 0 min 0,000 mm 0,0 UV-I 0 W/m 8,1 C 11,8 C 6,4 km/h (2 Bft) 100,00 %
13.07.2020 01:07 11,8 C 77 % 1026,4 hPa 0,0 l/m 3,2 km/h (1 Bft) SO 135 0 min 0,000 mm 0,0 UV-I 0 W/m 7,9 C 11,8 C 6,4 km/h (2 Bft) 95,65 %
13.07.2020 01:06 11,8 C 78 % 1026,4 hPa 0,0 l/m 4,8 km/h (1 Bft) SO 135 0 min 0,000 mm 0,0 UV-I 0 W/m 8,1 C 11,8 C 6,4 km/h (2 Bft) 100,00 %
13.07.2020 01:05 11,7 C 78 % 1026,3 hPa 0,0 l/m 4,8 km/h (1 Bft) O-SO 112 0 min 0,000 mm 0,0 UV-I 0 W/m 8,0 C 11,7 C 6,4 km/h (2 Bft) 100,00 %
13.07.2020 01:04 11,8 C 78 % 1026,4 hPa 0,0 l/m 3,2 km/h (1 Bft) SO 135 0 min 0,000 mm 0,0 UV-I 0 W/m 8,1 C 11,8 C 6,4 km/h (2 Bft) 100,00 %
13.07.2020 01:03 11,7 C 78 % 1026,3 hPa 0,0 l/m 3,2 km/h (1 Bft) SO 135 0 min 0,000 mm 0,0 UV-I 0 W/m 8,0 C 11,7 C 6,4 km/h (2 Bft) 100,00 %
13.07.2020 01:02 11,7 C 78 % 1026,3 hPa 0,0 l/m 3,2 km/h (1 Bft) SO 135 0 min 0,000 mm 0,0 UV-I 0 W/m 8,0 C 11,7 C 6,4 km/h (2 Bft) 100,00 %
13.07.2020 01:01 11,7 C 79 % 1026,2 hPa 0,0 l/m 4,8 km/h (1 Bft) O-SO 112 0 min 0,000 mm 0,0 UV-I 0 W/m 8,2 C 11,7 C 6,4 km/h (2 Bft) 100,00 %
13.07.2020 01:00 11,7 C 79 % 1026,3 hPa 0,0 l/m 3,2 km/h (1 Bft) O-SO 112 0 min 0,025 mm 0,0 UV-I 0 W/m 8,2 C 11,7 C 4,8 km/h (1 Bft) 100,00 %
13.07.2020 00:59 11,7 C 78 % 1026,3 hPa 0,0 l/m 3,2 km/h (1 Bft) O-SO 112 0 min 0,000 mm 0,0 UV-I 0 W/m 8,0 C 11,7 C 4,8 km/h (1 Bft) 95,65 %
13.07.2020 00:58 11,7 C 79 % 1026,4 hPa 0,0 l/m 4,8 km/h (1 Bft) O-SO 112 0 min 0,000 mm 0,0 UV-I 0 W/m 8,2 C 11,7 C 11,3 km/h (2 Bft) 100,00 %
13.07.2020 00:57 11,6 C 78 % 1026,3 hPa 0,0 l/m 6,4 km/h (2 Bft) SO 135 0 min 0,000 mm 0,0 UV-I 0 W/m 7,9 C 11,6 C 11,3 km/h (2 Bft) 100,00 %
13.07.2020 00:56 11,6 C 78 % 1026,3 hPa 0,0 l/m 3,2 km/h (1 Bft) O-SO 112 0 min 0,000 mm 0,0 UV-I 0 W/m 7,9 C 11,6 C 6,4 km/h (2 Bft) 100,00 %
13.07.2020 00:55 11,6 C 79 % 1026,4 hPa 0,0 l/m 3,2 km/h (1 Bft) O-SO 112 0 min 0,000 mm 0,0 UV-I 0 W/m 8,1 C 11,6 C 4,8 km/h (1 Bft) 100,00 %
13.07.2020 00:54 11,6 C 79 % 1026,4 hPa 0,0 l/m 3,2 km/h (1 Bft) O-SO 112 0 min 0,000 mm 0,0 UV-I 0 W/m 8,1 C 11,6 C 3,2 km/h (1 Bft) 100,00 %
13.07.2020 00:53 11,6 C 79 % 1026,4 hPa 0,0 l/m 3,2 km/h (1 Bft) O-SO 112 0 min 0,000 mm 0,0 UV-I 0 W/m 8,1 C 11,6 C 3,2 km/h (1 Bft) 91,30 %
13.07.2020 00:52 11,6 C 79 % 1026,4 hPa 0,0 l/m 3,2 km/h (1 Bft) O-SO 112 0 min 0,000 mm 0,0 UV-I 0 W/m 8,1 C 11,6 C 4,8 km/h (1 Bft) 100,00 %
13.07.2020 00:51 11,6 C 79 % 1026,4 hPa 0,0 l/m 1,6 km/h (1 Bft) O-SO 112 0 min 0,000 mm 0,0 UV-I 0 W/m 8,1 C 11,6 C 3,2 km/h (1 Bft) 100,00 %
13.07.2020 00:50 11,6 C 79 % 1026,4 hPa 0,0 l/m 1,6 km/h (1 Bft) O-SO 112 0 min 0,000 mm 0,0 UV-I 0 W/m 8,1 C 11,6 C 3,2 km/h (1 Bft) 100,00 %
13.07.2020 00:49 11,6 C 79 % 1026,4 hPa 0,0 l/m 3,2 km/h (1 Bft) O-SO 112 0 min 0,000 mm 0,0 UV-I 0 W/m 8,1 C 11,6 C 3,2 km/h (1 Bft) 100,00 %
13.07.2020 00:48 11,6 C 79 % 1026,3 hPa 0,0 l/m 1,6 km/h (1 Bft) O-SO 112 0 min 0,000 mm 0,0 UV-I 0 W/m 8,1 C 11,6 C 3,2 km/h (1 Bft) 95,65 %
13.07.2020 00:47 11,6 C 79 % 1026,3 hPa 0,0 l/m 3,2 km/h (1 Bft) O-SO 112 0 min 0,000 mm 0,0 UV-I 0 W/m 8,1 C 11,6 C 4,8 km/h (1 Bft) 100,00 %
13.07.2020 00:46 11,6 C 79 % 1026,4 hPa 0,0 l/m 1,6 km/h (1 Bft) O-SO 112 0 min 0,000 mm 0,0 UV-I 0 W/m 8,1 C 11,6 C 3,2 km/h (1 Bft) 100,00 %
13.07.2020 00:45 11,6 C 79 % 1026,3 hPa 0,0 l/m 1,6 km/h (1 Bft) O-SO 112 0 min 0,000 mm 0,0 UV-I 0 W/m 8,1 C 11,6 C 3,2 km/h (1 Bft) 100,00 %
13.07.2020 00:44 11,6 C 79 % 1026,3 hPa 0,0 l/m 1,6 km/h (1 Bft) O-SO 112 0 min 0,000 mm 0,0 UV-I 0 W/m 8,1 C 11,6 C 3,2 km/h (1 Bft) 95,65 %
13.07.2020 00:43 11,6 C 79 % 1026,4 hPa 0,0 l/m 3,2 km/h (1 Bft) O-SO 112 0 min 0,000 mm 0,0 UV-I 0 W/m 8,1 C 11,6 C 3,2 km/h (1 Bft) 95,65 %
13.07.2020 00:42 11,6 C 79 % 1026,3 hPa 0,0 l/m 3,2 km/h (1 Bft) O-SO 112 0 min 0,000 mm 0,0 UV-I 0 W/m 8,1 C 11,6 C 4,8 km/h (1 Bft) 100,00 %
13.07.2020 00:41 11,6 C 79 % 1026,4 hPa 0,0 l/m 3,2 km/h (1 Bft) O-SO 112 0 min 0,000 mm 0,0 UV-I 0 W/m 8,1 C 11,6 C 4,8 km/h (1 Bft) 95,65 %
13.07.2020 00:40 11,6 C 79 % 1026,4 hPa 0,0 l/m 3,2 km/h (1 Bft) O-SO 112 0 min 0,000 mm 0,0 UV-I 0 W/m 8,1 C 11,6 C 4,8 km/h (1 Bft) 100,00 %
13.07.2020 00:39 11,6 C 79 % 1026,4 hPa 0,0 l/m 3,2 km/h (1 Bft) O-SO 112 0 min 0,000 mm 0,0 UV-I 0 W/m 8,1 C 11,6 C 4,8 km/h (1 Bft) 100,00 %
13.07.2020 00:38 11,6 C 79 % 1026,4 hPa 0,0 l/m 3,2 km/h (1 Bft) O-SO 112 0 min 0,000 mm 0,0 UV-I 0 W/m 8,1 C 11,6 C 4,8 km/h (1 Bft) 100,00 %
13.07.2020 00:37 11,6 C 79 % 1026,4 hPa 0,0 l/m 3,2 km/h (1 Bft) O-SO 112 0 min 0,000 mm 0,0 UV-I 0 W/m 8,1 C 11,6 C 4,8 km/h (1 Bft) 100,00 %
13.07.2020 00:36 11,6 C 78 % 1026,4 hPa 0,0 l/m 4,8 km/h (1 Bft) O-SO 112 0 min 0,000 mm 0,0 UV-I 0 W/m 7,9 C 11,6 C 4,8 km/h (1 Bft) 100,00 %
13.07.2020 00:35 11,6 C 79 % 1026,5 hPa 0,0 l/m 3,2 km/h (1 Bft) O-SO 112 0 min 0,000 mm 0,0 UV-I 0 W/m 8,1 C 11,6 C 4,8 km/h (1 Bft) 100,00 %
13.07.2020 00:34 11,6 C 79 % 1026,5 hPa 0,0 l/m 3,2 km/h (1 Bft) O-SO 112 0 min 0,000 mm 0,0 UV-I 0 W/m 8,1 C 11,6 C 4,8 km/h (1 Bft) 100,00 %
13.07.2020 00:33 11,6 C 78 % 1026,4 hPa 0,0 l/m 3,2 km/h (1 Bft) O-SO 112 0 min 0,000 mm 0,0 UV-I 0 W/m 7,9 C 11,6 C 4,8 km/h (1 Bft) 100,00 %
13.07.2020 00:32 11,6 C 78 % 1026,5 hPa 0,0 l/m 3,2 km/h (1 Bft) O-SO 112 0 min 0,000 mm 0,0 UV-I 0 W/m 7,9 C 11,6 C 3,2 km/h (1 Bft) 100,00 %
13.07.2020 00:31 11,6 C 78 % 1026,5 hPa 0,0 l/m 3,2 km/h (1 Bft) O-SO 112 0 min 0,000 mm 0,0 UV-I 0 W/m 7,9 C 11,6 C 4,8 km/h (1 Bft) 100,00 %
13.07.2020 00:30 11,6 C 78 % 1026,5 hPa 0,0 l/m 3,2 km/h (1 Bft) O-SO 112 0 min 0,000 mm 0,0 UV-I 0 W/m 7,9 C 11,6 C 4,8 km/h (1 Bft) 100,00 %
13.07.2020 00:29 11,6 C 78 % 1026,4 hPa 0,0 l/m 3,2 km/h (1 Bft) O-SO 112 0 min 0,000 mm 0,0 UV-I 0 W/m 7,9 C 11,6 C 4,8 km/h (1 Bft) 100,00 %
13.07.2020 00:28 11,6 C 78 % 1026,5 hPa 0,0 l/m 3,2 km/h (1 Bft) O-SO 112 0 min 0,000 mm 0,0 UV-I 0 W/m 7,9 C 11,6 C 4,8 km/h (1 Bft) 100,00 %
13.07.2020 00:27 11,6 C 78 % 1026,5 hPa 0,0 l/m 3,2 km/h (1 Bft) O-SO 112 0 min 0,000 mm 0,0 UV-I 0 W/m 7,9 C 11,6 C 3,2 km/h (1 Bft) 100,00 %
13.07.2020 00:26 11,6 C 78 % 1026,5 hPa 0,0 l/m 1,6 km/h (1 Bft) O-SO 112 0 min 0,000 mm 0,0 UV-I 0 W/m 7,9 C 11,6 C 4,8 km/h (1 Bft) 100,00 %
13.07.2020 00:25 11,6 C 78 % 1026,5 hPa 0,0 l/m 3,2 km/h (1 Bft) O-SO 112 0 min 0,000 mm 0,0 UV-I 0 W/m 7,9 C 11,6 C 4,8 km/h (1 Bft) 100,00 %
13.07.2020 00:24 11,6 C 78 % 1026,5 hPa 0,0 l/m 3,2 km/h (1 Bft) O-SO 112 0 min 0,000 mm 0,0 UV-I 0 W/m 7,9 C 11,6 C 4,8 km/h (1 Bft) 95,65 %
13.07.2020 00:23 11,6 C 78 % 1026,6 hPa 0,0 l/m 3,2 km/h (1 Bft) O-SO 112 0 min 0,000 mm 0,0 UV-I 0 W/m 7,9 C 11,6 C 4,8 km/h (1 Bft) 100,00 %
13.07.2020 00:22 11,6 C 78 % 1026,5 hPa 0,0 l/m 0,0 km/h (0 Bft) N 0 0 min 0,000 mm 0,0 UV-I 0 W/m 7,9 C 11,6 C 0,0 km/h (0 Bft) 100,00 %
13.07.2020 00:21 11,6 C 78 % 1026,5 hPa 0,0 l/m 1,6 km/h (1 Bft) O-SO 112 0 min 0,000 mm 0,0 UV-I 0 W/m 7,9 C 11,6 C 3,2 km/h (1 Bft) 100,00 %
13.07.2020 00:20 11,7 C 78 % 1026,5 hPa 0,0 l/m 0,0 km/h (0 Bft) N 0 0 min 0,000 mm 0,0 UV-I 0 W/m 8,0 C 11,7 C 0,0 km/h (0 Bft) 100,00 %
13.07.2020 00:19 11,7 C 78 % 1026,5 hPa 0,0 l/m 0,0 km/h (0 Bft) N 0 0 min 0,000 mm 0,0 UV-I 0 W/m 8,0 C 11,7 C 0,0 km/h (0 Bft) 100,00 %
13.07.2020 00:18 11,7 C 78 % 1026,5 hPa 0,0 l/m 3,2 km/h (1 Bft) O-SO 112 0 min 0,000 mm 0,0 UV-I 0 W/m 8,0 C 11,7 C 3,2 km/h (1 Bft) 100,00 %
13.07.2020 00:17 11,7 C 78 % 1026,6 hPa 0,0 l/m 1,6 km/h (1 Bft) O-SO 112 0 min 0,000 mm 0,0 UV-I 0 W/m 8,0 C 11,7 C 3,2 km/h (1 Bft) 100,00 %
13.07.2020 00:16 11,7 C 78 % 1026,6 hPa 0,0 l/m 1,6 km/h (1 Bft) O-SO 112 0 min 0,000 mm 0,0 UV-I 0 W/m 8,0 C 11,7 C 3,2 km/h (1 Bft) 100,00 %
13.07.2020 00:15 11,7 C 77 % 1026,7 hPa 0,0 l/m 1,6 km/h (1 Bft) O-SO 112 0 min 0,000 mm 0,0 UV-I 0 W/m 7,8 C 11,7 C 3,2 km/h (1 Bft) 100,00 %
13.07.2020 00:14 11,7 C 77 % 1026,6 hPa 0,0 l/m 1,6 km/h (1 Bft) O-SO 112 0 min 0,000 mm 0,0 UV-I 0 W/m 7,8 C 11,7 C 3,2 km/h (1 Bft) 95,65 %
13.07.2020 00:13 11,7 C 77 % 1026,6 hPa 0,0 l/m 1,6 km/h (1 Bft) O-SO 112 0 min 0,000 mm 0,0 UV-I 0 W/m 7,8 C 11,7 C 3,2 km/h (1 Bft) 100,00 %
13.07.2020 00:12 11,7 C 77 % 1026,6 hPa 0,0 l/m 1,6 km/h (1 Bft) O-SO 112 0 min 0,000 mm 0,0 UV-I 0 W/m 7,8 C 11,7 C 3,2 km/h (1 Bft) 100,00 %
13.07.2020 00:11 11,8 C 77 % 1026,7 hPa 0,0 l/m 1,6 km/h (1 Bft) O-SO 112 0 min 0,000 mm 0,0 UV-I 0 W/m 7,9 C 11,8 C 3,2 km/h (1 Bft) 100,00 %
13.07.2020 00:10 11,8 C 77 % 1026,6 hPa 0,0 l/m 1,6 km/h (1 Bft) O-SO 112 0 min 0,000 mm 0,0 UV-I 0 W/m 7,9 C 11,8 C 3,2 km/h (1 Bft) 100,00 %
13.07.2020 00:09 11,8 C 77 % 1026,7 hPa 0,0 l/m 1,6 km/h (1 Bft) O-SO 112 0 min 0,000 mm 0,0 UV-I 0 W/m 7,9 C 11,8 C 3,2 km/h (1 Bft) 100,00 %
13.07.2020 00:08 11,8 C 77 % 1026,7 hPa 0,0 l/m 1,6 km/h (1 Bft) O-SO 112 0 min 0,000 mm 0,0 UV-I 0 W/m 7,9 C 11,8 C 3,2 km/h (1 Bft) 100,00 %
13.07.2020 00:07 11,8 C 77 % 1026,7 hPa 0,0 l/m 1,6 km/h (1 Bft) O-SO 112 0 min 0,000 mm 0,0 UV-I 0 W/m 7,9 C 11,8 C 3,2 km/h (1 Bft) 100,00 %
13.07.2020 00:06 11,8 C 77 % 1026,6 hPa 0,0 l/m 1,6 km/h (1 Bft) O-SO 112 0 min 0,000 mm 0,0 UV-I 0 W/m 7,9 C 11,8 C 3,2 km/h (1 Bft) 100,00 %
13.07.2020 00:05 11,9 C 76 % 1026,8 hPa 0,0 l/m 3,2 km/h (1 Bft) O-SO 112 0 min 0,000 mm 0,0 UV-I 0 W/m 7,8 C 11,9 C 3,2 km/h (1 Bft) 100,00 %
13.07.2020 00:04 11,9 C 76 % 1026,8 hPa 0,0 l/m 1,6 km/h (1 Bft) O-SO 112 0 min 0,000 mm 0,0 UV-I 0 W/m 7,8 C 11,9 C 3,2 km/h (1 Bft) 100,00 %
13.07.2020 00:03 11,9 C 76 % 1026,7 hPa 0,0 l/m 1,6 km/h (1 Bft) O-SO 112 0 min 0,000 mm 0,0 UV-I 0 W/m 7,8 C 11,9 C 3,2 km/h (1 Bft) 100,00 %
13.07.2020 00:02 11,9 C 76 % 1026,7 hPa 0,0 l/m 3,2 km/h (1 Bft) O-SO 112 0 min 0,000 mm 0,0 UV-I 0 W/m 7,8 C 11,9 C 4,8 km/h (1 Bft) 95,65 %
13.07.2020 00:01 12,0 C 76 % 1026,8 hPa 0,0 l/m 3,2 km/h (1 Bft) O-SO 112 0 min 0,000 mm 0,0 UV-I 0 W/m 7,9 C 12,0 C 4,8 km/h (1 Bft) 100,00 %
13.07.2020 00:00 12,1 C 76 % 1026,8 hPa 0,0 l/m 3,2 km/h (1 Bft) O-SO 112 0 min 0,025 mm 0,0 UV-I 0 W/m 8,0 C 12,1 C 4,8 km/h (1 Bft) 100,00 %
_ Min-Zeit 06:02 10:59 10:19 - 00:19 - - - - - - 05:25 06:03 00:19 10:54
Minimum _ 9,1 C 53 % 1024,4 hPa - 0,0 km/h (0 Bft) - - - - - - 7,4 C 7,2 C 0,0 km/h (0 Bft) 78,26 %
_ Max-Zeit 10:59 06:13 00:00 00:00 10:28 - - 07:05 10:00 10:57 10:58 09:28 10:59 10:59 00:00
Maximum _ 17,9 C 91 % 1026,8 hPa 0,0 l/m 24,1 km/h
O-SO (4 Bft)
- - 1 min 0,330 mm 4,5 UV-I 726 W/m 11,3 C 17,9 C 38,6 km/h
O-SO (5 Bft)
100,00 %
Durchschnitt _ 12,1 C 79 % 1025,4 hPa #0,0 l/m 9,6 km/h (2 Bft) O-SO - #3:55 h #0,860 mm 2,2 UV-I 311 W/m 8,5 C 11,8 C 13,1 km/h (3 Bft) 98,29 %